<?xml version="1.0" encoding="UTF-8"?>
<gpx
  version="1.0"
  creator="pymavlink"
  xmlns:xsi="http://www.w3.org/2001/XMLSchema-instance"
  xmlns="http://www.topografix.com/GPX/1/0"
  xsi:schemaLocation="http://www.topografix.com/GPX/1/0 http://www.topografix.com/GPX/1/0/gpx.xsd">
<trk>
<trkseg>
<trkpt lat="-34.9722477" lon="147.5159052">
  <ele>578.01</ele>
  <time>2026-08-29T18:57:06Z</time>
  <course>180.01</course>
  <speed>0.0</speed>
  <fix>3d</fix>
</trkpt>
<trkpt lat="-35.3632621" lon="149.165237">
  <ele>0.11</ele>
  <time>2026-08-29T18:57:06Z</time>
  <course>355.55</course>
  <speed>0.0</speed>
  <fix>3d</fix>
</trkpt>
<trkpt lat="-35.3632621" lon="149.165237">
  <ele>584.48</ele>
  <time>2026-08-29T18:57:06Z</time>
  <course>180.02</course>
  <speed>0.0</speed>
  <fix>3d</fix>
</trkpt>
<trkpt lat="-35.3632621" lon="149.165237">
  <ele>584.42</ele>
  <time>2026-08-29T18:57:06Z</time>
  <course>358.9</course>
  <speed>0.0</speed>
  <fix>3d</fix>
</trkpt>
<trkpt lat="-35.3632621" lon="149.165237">
  <ele>584.48</ele>
  <time>2026-08-29T18:57:06Z</time>
  <course>180.02</course>
  <speed>0.0</speed>
  <fix>3d</fix>
</trkpt>
<trkpt lat="-35.3632621" lon="149.165237">
  <ele>584.53</ele>
  <time>2026-08-29T18:57:06Z</time>
  <course>359.75</course>
  <speed>0.0</speed>
  <fix>3d</fix>
</trkpt>
<trkpt lat="-35.3632621" lon="149.165237">
  <ele>584.48</ele>
  <time>2026-08-29T18:57:06Z</time>
  <course>180.02</course>
  <speed>0.0</speed>
  <fix>3d</fix>
</trkpt>
<trkpt lat="-35.3632621" lon="149.165237">
  <ele>584.56</ele>
  <time>2026-08-29T18:57:06Z</time>
  <course>359.92</course>
  <speed>0.0</speed>
  <fix>3d</fix>
</trkpt>
<trkpt lat="-35.3632621" lon="149.165237">
  <ele>584.48</ele>
  <time>2026-08-29T18:57:06Z</time>
  <course>180.02</course>
  <speed>0.0</speed>
  <fix>3d</fix>
</trkpt>
<trkpt lat="-35.3632621" lon="149.165237">
  <ele>584.6</ele>
  <time>2026-08-29T18:57:06Z</time>
  <course>359.97</course>
  <speed>0.0</speed>
  <fix>3d</fix>
</trkpt>
<trkpt lat="-35.3632621" lon="149.165237">
  <ele>584.48</ele>
  <time>2026-08-29T18:57:06Z</time>
  <course>180.02</course>
  <speed>0.0</speed>
  <fix>3d</fix>
</trkpt>
<trkpt lat="-35.3632621" lon="149.165237">
  <ele>584.49</ele>
  <time>2026-08-29T18:57:06Z</time>
  <course>359.97</course>
  <speed>0.0</speed>
  <fix>3d</fix>
</trkpt>
<trkpt lat="-35.3632621" lon="149.165237">
  <ele>584.48</ele>
  <time>2026-08-29T18:57:06Z</time>
  <course>180.02</course>
  <speed>0.0</speed>
  <fix>3d</fix>
</trkpt>
<trkpt lat="-35.3632621" lon="149.165237">
  <ele>584.48</ele>
  <time>2026-08-29T18:57:06Z</time>
  <course>359.98</course>
  <speed>0.0</speed>
  <fix>3d</fix>
</trkpt>
<trkpt lat="-35.3632621" lon="149.165237">
  <ele>584.48</ele>
  <time>2026-08-29T18:57:06Z</time>
  <course>180.02</course>
  <speed>0.0</speed>
  <fix>3d</fix>
</trkpt>
<trkpt lat="-35.3632621" lon="149.165237">
  <ele>584.56</ele>
  <time>2026-08-29T18:57:06Z</time>
  <course>359.98</course>
  <speed>0.0</speed>
  <fix>3d</fix>
</trkpt>
<trkpt lat="-35.3632621" lon="149.165237">
  <ele>584.48</ele>
  <time>2026-08-29T18:57:06Z</time>
  <course>180.02</course>
  <speed>0.0</speed>
  <fix>3d</fix>
</trkpt>
<trkpt lat="-35.3632621" lon="149.165237">
  <ele>584.45</ele>
  <time>2026-08-29T18:57:06Z</time>
  <course>359.98</course>
  <speed>0.0</speed>
  <fix>3d</fix>
</trkpt>
<trkpt lat="-35.3632621" lon="149.165237">
  <ele>584.48</ele>
  <time>2026-08-29T18:57:06Z</time>
  <course>180.02</course>
  <speed>0.0</speed>
  <fix>3d</fix>
</trkpt>
<trkpt lat="-35.3632621" lon="149.165237">
  <ele>584.47</ele>
  <time>2026-08-29T18:57:06Z</time>
  <course>359.98</course>
  <speed>0.0</speed>
  <fix>3d</fix>
</trkpt>
<trkpt lat="-35.3632621" lon="149.165237">
  <ele>584.48</ele>
  <time>2026-08-29T18:57:06Z</time>
  <course>180.02</course>
  <speed>0.0</speed>
  <fix>3d</fix>
</trkpt>
<trkpt lat="-35.3632621" lon="149.165237">
  <ele>584.79</ele>
  <time>2026-08-29T18:57:06Z</time>
  <course>359.98</course>
  <speed>0.0</speed>
  <fix>3d</fix>
</trkpt>
<trkpt lat="-35.3632621" lon="149.165237">
  <ele>584.48</ele>
  <time>2026-08-29T18:57:06Z</time>
  <course>180.02</course>
  <speed>0.0</speed>
  <fix>3d</fix>
</trkpt>
<trkpt lat="-35.3632621" lon="149.165237">
  <ele>584.56</ele>
  <time>2026-08-29T18:57:06Z</time>
  <course>0.0</course>
  <speed>0.0</speed>
  <fix>3d</fix>
</trkpt>
<trkpt lat="-35.3632621" lon="149.165237">
  <ele>584.48</ele>
  <time>2026-08-29T18:57:06Z</time>
  <course>180.02</course>
  <speed>0.0</speed>
  <fix>3d</fix>
</trkpt>
<trkpt lat="-35.3632621" lon="149.165237">
  <ele>584.48</ele>
  <time>2026-08-29T18:57:07Z</time>
  <course>359.99</course>
  <speed>0.0</speed>
  <fix>3d</fix>
</trkpt>
<trkpt lat="-35.3632621" lon="149.165237">
  <ele>584.48</ele>
  <time>2026-08-29T18:57:07Z</time>
  <course>180.02</course>
  <speed>0.0</speed>
  <fix>3d</fix>
</trkpt>
<trkpt lat="-35.3632621" lon="149.165237">
  <ele>584.43</ele>
  <time>2026-08-29T18:57:07Z</time>
  <course>359.99</course>
  <speed>0.0</speed>
  <fix>3d</fix>
</trkpt>
<trkpt lat="-35.3632621" lon="149.165237">
  <ele>584.48</ele>
  <time>2026-08-29T18:57:07Z</time>
  <course>180.02</course>
  <speed>0.0</speed>
  <fix>3d</fix>
</trkpt>
<trkpt lat="-35.3632621" lon="149.165237">
  <ele>584.39</ele>
  <time>2026-08-29T18:57:07Z</time>
  <course>0.0</course>
  <speed>0.0</speed>
  <fix>3d</fix>
</trkpt>
<trkpt lat="-35.3632621" lon="149.165237">
  <ele>584.48</ele>
  <time>2026-08-29T18:57:07Z</time>
  <course>180.02</course>
  <speed>0.0</speed>
  <fix>3d</fix>
</trkpt>
<trkpt lat="-35.3632621" lon="149.165237">
  <ele>584.37</ele>
  <time>2026-08-29T18:57:07Z</time>
  <course>0.0</course>
  <speed>0.0</speed>
  <fix>3d</fix>
</trkpt>
<trkpt lat="-35.3632621" lon="149.165237">
  <ele>584.48</ele>
  <time>2026-08-29T18:57:07Z</time>
  <course>180.02</course>
  <speed>0.0</speed>
  <fix>3d</fix>
</trkpt>
<trkpt lat="-35.3632621" lon="149.165237">
  <ele>584.35</ele>
  <time>2026-08-29T18:57:07Z</time>
  <course>359.99</course>
  <speed>0.0</speed>
  <fix>3d</fix>
</trkpt>
<trkpt lat="-35.3632621" lon="149.165237">
  <ele>584.48</ele>
  <time>2026-08-29T18:57:07Z</time>
  <course>180.02</course>
  <speed>0.0</speed>
  <fix>3d</fix>
</trkpt>
<trkpt lat="-35.3632621" lon="149.165237">
  <ele>584.34</ele>
  <time>2026-08-29T18:57:07Z</time>
  <course>359.99</course>
  <speed>0.0</speed>
  <fix>3d</fix>
</trkpt>
<trkpt lat="-35.3632621" lon="149.165237">
  <ele>584.48</ele>
  <time>2026-08-29T18:57:07Z</time>
  <course>180.02</course>
  <speed>0.0</speed>
  <fix>3d</fix>
</trkpt>
<trkpt lat="-35.3632621" lon="149.165237">
  <ele>584.47</ele>
  <time>2026-08-29T18:57:07Z</time>
  <course>359.99</course>
  <speed>0.0</speed>
  <fix>3d</fix>
</trkpt>
<trkpt lat="-35.3632621" lon="149.165237">
  <ele>584.48</ele>
  <time>2026-08-29T18:57:07Z</time>
  <course>180.02</course>
  <speed>0.0</speed>
  <fix>3d</fix>
</trkpt>
<trkpt lat="-35.3632621" lon="149.165237">
  <ele>584.48</ele>
  <time>2026-08-29T18:57:07Z</time>
  <course>359.99</course>
  <speed>0.0</speed>
  <fix>3d</fix>
</trkpt>
<trkpt lat="-35.3632621" lon="149.165237">
  <ele>584.48</ele>
  <time>2026-08-29T18:57:07Z</time>
  <course>180.02</course>
  <speed>0.0</speed>
  <fix>3d</fix>
</trkpt>
<trkpt lat="-35.3632621" lon="149.165237">
  <ele>584.5</ele>
  <time>2026-08-29T18:57:07Z</time>
  <course>359.98</course>
  <speed>0.0</speed>
  <fix>3d</fix>
</trkpt>
<trkpt lat="-35.3632621" lon="149.165237">
  <ele>584.48</ele>
  <time>2026-08-29T18:57:07Z</time>
  <course>180.02</course>
  <speed>0.0</speed>
  <fix>3d</fix>
</trkpt>
<trkpt lat="-35.3632579" lon="149.165237">
  <ele>584.49</ele>
  <time>2026-08-29T18:57:07Z</time>
  <course>359.98</course>
  <speed>2.27</speed>
  <fix>3d</fix>
</trkpt>
<trkpt lat="-35.3632603" lon="149.165237">
  <ele>584.48</ele>
  <time>2026-08-29T18:57:07Z</time>
  <course>0.0</course>
  <speed>1.28</speed>
  <fix>3d</fix>
</trkpt>
<trkpt lat="-35.3631885" lon="149.165237">
  <ele>584.55</ele>
  <time>2026-08-29T18:57:07Z</time>
  <course>359.97</course>
  <speed>12.490004003201921</speed>
  <fix>3d</fix>
</trkpt>
<trkpt lat="-35.3632099" lon="149.165237">
  <ele>584.52</ele>
  <time>2026-08-29T18:57:07Z</time>
  <course>359.99</course>
  <speed>10.58</speed>
  <fix>3d</fix>
</trkpt>
<trkpt lat="-35.3630503" lon="149.165237">
  <ele>585.03</ele>
  <time>2026-08-29T18:57:07Z</time>
  <course>0.11</course>
  <speed>18.850002652519706</speed>
  <fix>3d</fix>
</trkpt>
<trkpt lat="-35.363081" lon="149.165237">
  <ele>584.75</ele>
  <time>2026-08-29T18:57:07Z</time>
  <course>0.0</course>
  <speed>17.59</speed>
  <fix>3d</fix>
</trkpt>
<trkpt lat="-35.3628625" lon="149.165237">
  <ele>592.39</ele>
  <time>2026-08-29T18:57:07Z</time>
  <course>359.94</course>
  <speed>23.240002151462896</speed>
  <fix>3d</fix>
</trkpt>
<trkpt lat="-35.3629059" lon="149.165237">
  <ele>590.94</ele>
  <time>2026-08-29T18:57:07Z</time>
  <course>359.99</course>
  <speed>22.26</speed>
  <fix>3d</fix>
</trkpt>
<trkpt lat="-35.3626522" lon="149.1652367">
  <ele>600.72</ele>
  <time>2026-08-29T18:57:07Z</time>
  <course>359.93</course>
  <speed>25.280049446154177</speed>
  <fix>3d</fix>
</trkpt>
<trkpt lat="-35.3626943" lon="149.1652368">
  <ele>598.83</ele>
  <time>2026-08-29T18:57:07Z</time>
  <course>359.85</course>
  <speed>24.77</speed>
  <fix>3d</fix>
</trkpt>
<trkpt lat="-35.3624145" lon="149.1652364">
  <ele>610.22</ele>
  <time>2026-08-29T18:57:07Z</time>
  <course>359.88</course>
  <speed>26.510016974721083</speed>
  <fix>3d</fix>
</trkpt>
<trkpt lat="-35.3624643" lon="149.1652363">
  <ele>607.91</ele>
  <time>2026-08-29T18:57:07Z</time>
  <course>359.9</course>
  <speed>26.18</speed>
  <fix>3d</fix>
</trkpt>
<trkpt lat="-35.3621726" lon="149.1652355">
  <ele>619.1</ele>
  <time>2026-08-29T18:57:07Z</time>
  <course>359.16</course>
  <speed>27.89014521296008</speed>
  <fix>3d</fix>
</trkpt>
<trkpt lat="-35.3622235" lon="149.1652356">
  <ele>617.02</ele>
  <time>2026-08-29T18:57:07Z</time>
  <course>359.8</course>
  <speed>27.55</speed>
  <fix>3d</fix>
</trkpt>
<trkpt lat="-35.3619179" lon="149.1652066">
  <ele>624.07</ele>
  <time>2026-08-29T18:57:07Z</time>
  <course>348.58</course>
  <speed>28.359016202964444</speed>
  <fix>3d</fix>
</trkpt>
<trkpt lat="-35.361971" lon="149.1652197">
  <ele>622.81</ele>
  <time>2026-08-29T18:57:07Z</time>
  <course>349.76</course>
  <speed>28.37</speed>
  <fix>3d</fix>
</trkpt>
<trkpt lat="-35.3616937" lon="149.1650858">
  <ele>626.81</ele>
  <time>2026-08-29T18:57:07Z</time>
  <course>336.05</course>
  <speed>26.770254014484063</speed>
  <fix>3d</fix>
</trkpt>
<trkpt lat="-35.3617385" lon="149.1651126">
  <ele>626.17</ele>
  <time>2026-08-29T18:57:07Z</time>
  <course>334.03</course>
  <speed>27.1</speed>
  <fix>3d</fix>
</trkpt>
<trkpt lat="-35.3615048" lon="149.1649203">
  <ele>626.51</ele>
  <time>2026-08-29T18:57:07Z</time>
  <course>320.03</course>
  <speed>24.796987720285706</speed>
  <fix>3d</fix>
</trkpt>
<trkpt lat="-35.36154" lon="149.1649588">
  <ele>626.29</ele>
  <time>2026-08-29T18:57:07Z</time>
  <course>319.39</course>
  <speed>25.16</speed>
  <fix>3d</fix>
</trkpt>
<trkpt lat="-35.3613696" lon="149.1647149">
  <ele>625.36</ele>
  <time>2026-08-29T18:57:07Z</time>
  <course>303.27</course>
  <speed>23.76405689271089</speed>
  <fix>3d</fix>
</trkpt>
<trkpt lat="-35.3613931" lon="149.1647599">
  <ele>625.24</ele>
  <time>2026-08-29T18:57:07Z</time>
  <course>304.13</course>
  <speed>23.96</speed>
  <fix>3d</fix>
</trkpt>
<trkpt lat="-35.3612874" lon="149.1644723">
  <ele>625.9</ele>
  <time>2026-08-29T18:57:07Z</time>
  <course>288.97</course>
  <speed>23.725673857658922</speed>
  <fix>3d</fix>
</trkpt>
<trkpt lat="-35.3613004" lon="149.1645241">
  <ele>625.41</ele>
  <time>2026-08-29T18:57:07Z</time>
  <course>288.72</course>
  <speed>23.77</speed>
  <fix>3d</fix>
</trkpt>
<trkpt lat="-35.3612412" lon="149.1642179">
  <ele>628.22</ele>
  <time>2026-08-29T18:57:07Z</time>
  <course>280.64</course>
  <speed>23.63774946986282</speed>
  <fix>3d</fix>
</trkpt>
<trkpt lat="-35.3612482" lon="149.1642707">
  <ele>627.4</ele>
  <time>2026-08-29T18:57:07Z</time>
  <course>280.37</course>
  <speed>23.69</speed>
  <fix>3d</fix>
</trkpt>
<trkpt lat="-35.3612144" lon="149.1639568">
  <ele>631.4</ele>
  <time>2026-08-29T18:57:07Z</time>
  <course>275.8</course>
  <speed>23.91239009384047</speed>
  <fix>3d</fix>
</trkpt>
<trkpt lat="-35.3612184" lon="149.1640115">
  <ele>630.42</ele>
  <time>2026-08-29T18:57:07Z</time>
  <course>275.85</course>
  <speed>23.85</speed>
  <fix>3d</fix>
</trkpt>
<trkpt lat="-35.3612013" lon="149.1636942">
  <ele>635.24</ele>
  <time>2026-08-29T18:57:07Z</time>
  <course>272.65</course>
  <speed>23.947296298329796</speed>
  <fix>3d</fix>
</trkpt>
<trkpt lat="-35.3612031" lon="149.1637487">
  <ele>634.17</ele>
  <time>2026-08-29T18:57:07Z</time>
  <course>272.63</course>
  <speed>23.95</speed>
  <fix>3d</fix>
</trkpt>
<trkpt lat="-35.3611976" lon="149.1634312">
  <ele>639.07</ele>
  <time>2026-08-29T18:57:07Z</time>
  <course>268.48</course>
  <speed>23.800680662535683</speed>
  <fix>3d</fix>
</trkpt>
<trkpt lat="-35.3611977" lon="149.1634854">
  <ele>638.01</ele>
  <time>2026-08-29T18:57:07Z</time>
  <course>270.27</course>
  <speed>23.84</speed>
  <fix>3d</fix>
</trkpt>
<trkpt lat="-35.3612419" lon="149.1631707">
  <ele>642.35</ele>
  <time>2026-08-29T18:57:07Z</time>
  <course>242.96</course>
  <speed>25.55748422673875</speed>
  <fix>3d</fix>
</trkpt>
<trkpt lat="-35.361224" lon="149.1632227">
  <ele>641.24</ele>
  <time>2026-08-29T18:57:07Z</time>
  <course>248.89</course>
  <speed>25.22</speed>
  <fix>3d</fix>
</trkpt>
<trkpt lat="-35.3614121" lon="149.1629899">
  <ele>648.81</ele>
  <time>2026-08-29T18:57:07Z</time>
  <course>217.18</course>
  <speed>24.62587460375773</speed>
  <fix>3d</fix>
</trkpt>
<trkpt lat="-35.361374" lon="149.1630192">
  <ele>647.31</ele>
  <time>2026-08-29T18:57:07Z</time>
  <course>213.5</course>
  <speed>24.99</speed>
  <fix>3d</fix>
</trkpt>
<trkpt lat="-35.3615946" lon="149.1628502">
  <ele>650.61</ele>
  <time>2026-08-29T18:57:07Z</time>
  <course>209.4</course>
  <speed>23.466883048244817</speed>
  <fix>3d</fix>
</trkpt>
<trkpt lat="-35.3615558" lon="149.1628745">
  <ele>650.28</ele>
  <time>2026-08-29T18:57:07Z</time>
  <course>210.26</course>
  <speed>23.46</speed>
  <fix>3d</fix>
</trkpt>
<trkpt lat="-35.3618018" lon="149.1628065">
  <ele>652.66</ele>
  <time>2026-08-29T18:57:07Z</time>
  <course>179.66</course>
  <speed>23.70466831659958</speed>
  <fix>3d</fix>
</trkpt>
<trkpt lat="-35.3617574" lon="149.1628044">
  <ele>651.71</ele>
  <time>2026-08-29T18:57:07Z</time>
  <course>180.25</course>
  <speed>23.76</speed>
  <fix>3d</fix>
</trkpt>
<trkpt lat="-35.3620087" lon="149.1628479">
  <ele>655.31</ele>
  <time>2026-08-29T18:57:07Z</time>
  <course>170.51</course>
  <speed>23.052195123241518</speed>
  <fix>3d</fix>
</trkpt>
<trkpt lat="-35.3619664" lon="149.162836">
  <ele>654.7</ele>
  <time>2026-08-29T18:57:07Z</time>
  <course>169.01</course>
  <speed>23.16</speed>
  <fix>3d</fix>
</trkpt>
<trkpt lat="-35.362205" lon="149.1629227">
  <ele>656.62</ele>
  <time>2026-08-29T18:57:07Z</time>
  <course>160.74</course>
  <speed>22.935267602537365</speed>
  <fix>3d</fix>
</trkpt>
<trkpt lat="-35.3621656" lon="149.1629034">
  <ele>655.98</ele>
  <time>2026-08-29T18:57:07Z</time>
  <course>159.87</course>
  <speed>22.99</speed>
  <fix>3d</fix>
</trkpt>
<trkpt lat="-35.3623948" lon="149.1630247">
  <ele>658.03</ele>
  <time>2026-08-29T18:57:07Z</time>
  <course>155.74</course>
  <speed>22.98348972632311</speed>
  <fix>3d</fix>
</trkpt>
<trkpt lat="-35.362356" lon="149.163002">
  <ele>657.42</ele>
  <time>2026-08-29T18:57:07Z</time>
  <course>155.22</course>
  <speed>23.02</speed>
  <fix>3d</fix>
</trkpt>
<trkpt lat="-35.362577" lon="149.163132">
  <ele>659.28</ele>
  <time>2026-08-29T18:57:07Z</time>
  <course>154.16</course>
  <speed>23.00724451124037</speed>
  <fix>3d</fix>
</trkpt>
<trkpt lat="-35.3625426" lon="149.1631115">
  <ele>658.71</ele>
  <time>2026-08-29T18:57:07Z</time>
  <course>154.11</course>
  <speed>23.06</speed>
  <fix>3d</fix>
</trkpt>
<trkpt lat="-35.3627692" lon="149.1632425">
  <ele>660.45</ele>
  <time>2026-08-29T18:57:07Z</time>
  <course>154.87</course>
  <speed>23.078000346650487</speed>
  <fix>3d</fix>
</trkpt>
<trkpt lat="-35.3627299" lon="149.1632208">
  <ele>659.88</ele>
  <time>2026-08-29T18:57:07Z</time>
  <course>155.22</course>
  <speed>23.09</speed>
  <fix>3d</fix>
</trkpt>
<trkpt lat="-35.3629552" lon="149.1633398">
  <ele>661.37</ele>
  <time>2026-08-29T18:57:07Z</time>
  <course>157.03</course>
  <speed>23.020690693374082</speed>
  <fix>3d</fix>
</trkpt>
<trkpt lat="-35.3629198" lon="149.1633228">
  <ele>660.9</ele>
  <time>2026-08-29T18:57:07Z</time>
  <course>157.62</course>
  <speed>23.08</speed>
  <fix>3d</fix>
</trkpt>
<trkpt lat="-35.3631546" lon="149.1634303">
  <ele>662.15</ele>
  <time>2026-08-29T18:57:07Z</time>
  <course>159.91</course>
  <speed>23.02785270058848</speed>
  <fix>3d</fix>
</trkpt>
<trkpt lat="-35.3631136" lon="149.1634135">
  <ele>661.74</ele>
  <time>2026-08-29T18:57:07Z</time>
  <course>160.57</course>
  <speed>23.03</speed>
  <fix>3d</fix>
</trkpt>
<trkpt lat="-35.3633467" lon="149.1635039">
  <ele>662.76</ele>
  <time>2026-08-29T18:57:07Z</time>
  <course>162.82</course>
  <speed>22.902150554041864</speed>
  <fix>3d</fix>
</trkpt>
<trkpt lat="-35.36331" lon="149.1634915">
  <ele>662.41</ele>
  <time>2026-08-29T18:57:07Z</time>
  <course>163.5</course>
  <speed>22.95</speed>
  <fix>3d</fix>
</trkpt>
<trkpt lat="-35.3635507" lon="149.1635697">
  <ele>663.23</ele>
  <time>2026-08-29T18:57:07Z</time>
  <course>165.39</course>
  <speed>22.87994099642742</speed>
  <fix>3d</fix>
</trkpt>
<trkpt lat="-35.3635087" lon="149.1635577">
  <ele>662.91</ele>
  <time>2026-08-29T18:57:07Z</time>
  <course>166.03</course>
  <speed>22.87</speed>
  <fix>3d</fix>
</trkpt>
<trkpt lat="-35.3637458" lon="149.1636227">
  <ele>663.55</ele>
  <time>2026-08-29T18:57:08Z</time>
  <course>167.63</course>
  <speed>22.769110654568834</speed>
  <fix>3d</fix>
</trkpt>
<trkpt lat="-35.3637087" lon="149.1636138">
  <ele>663.28</ele>
  <time>2026-08-29T18:57:08Z</time>
  <course>168.17</course>
  <speed>22.81</speed>
  <fix>3d</fix>
</trkpt>
<trkpt lat="-35.3639517" lon="149.163671">
  <ele>663.78</ele>
  <time>2026-08-29T18:57:08Z</time>
  <course>169.07</course>
  <speed>22.775787582430603</speed>
  <fix>3d</fix>
</trkpt>
<trkpt lat="-35.3639099" lon="149.1636621">
  <ele>663.54</ele>
  <time>2026-08-29T18:57:08Z</time>
  <course>169.59</course>
  <speed>22.79</speed>
  <fix>3d</fix>
</trkpt>
<trkpt lat="-35.364152" lon="149.1637134">
  <ele>664.03</ele>
  <time>2026-08-29T18:57:08Z</time>
  <course>170.1</course>
  <speed>22.667432585098826</speed>
  <fix>3d</fix>
</trkpt>
<trkpt lat="-35.3641113" lon="149.1637053">
  <ele>663.81</ele>
  <time>2026-08-29T18:57:08Z</time>
  <course>170.49</course>
  <speed>22.73</speed>
  <fix>3d</fix>
</trkpt>
<trkpt lat="-35.3643523" lon="149.1637705">
  <ele>664.02</ele>
  <time>2026-08-29T18:57:08Z</time>
  <course>160.8</course>
  <speed>23.2144028568473</speed>
  <fix>3d</fix>
</trkpt>
<trkpt lat="-35.3643115" lon="149.1637538">
  <ele>663.91</ele>
  <time>2026-08-29T18:57:08Z</time>
  <course>162.62</course>
  <speed>22.89</speed>
  <fix>3d</fix>
</trkpt>
<trkpt lat="-35.3645148" lon="149.163936">
  <ele>665.42</ele>
  <time>2026-08-29T18:57:08Z</time>
  <course>131.0</course>
  <speed>23.940008354217422</speed>
  <fix>3d</fix>
</trkpt>
<trkpt lat="-35.3644868" lon="149.1638951">
  <ele>664.84</ele>
  <time>2026-08-29T18:57:08Z</time>
  <course>131.1</course>
  <speed>24.03</speed>
  <fix>3d</fix>
</trkpt>
<trkpt lat="-35.3646265" lon="149.1641603">
  <ele>665.98</ele>
  <time>2026-08-29T18:57:08Z</time>
  <course>118.56</course>
  <speed>23.391827632743876</speed>
  <fix>3d</fix>
</trkpt>
<trkpt lat="-35.3646069" lon="149.1641115">
  <ele>665.95</ele>
  <time>2026-08-29T18:57:08Z</time>
  <course>118.21</course>
  <speed>23.42</speed>
  <fix>3d</fix>
</trkpt>
<trkpt lat="-35.3646795" lon="149.1644047">
  <ele>665.43</ele>
  <time>2026-08-29T18:57:08Z</time>
  <course>98.81</course>
  <speed>23.117413350113374</speed>
  <fix>3d</fix>
</trkpt>
<trkpt lat="-35.3646742" lon="149.1643525">
  <ele>665.41</ele>
  <time>2026-08-29T18:57:08Z</time>
  <course>99.02</course>
  <speed>23.14</speed>
  <fix>3d</fix>
</trkpt>
<trkpt lat="-35.3646652" lon="149.1646583">
  <ele>664.67</ele>
  <time>2026-08-29T18:57:08Z</time>
  <course>76.79</course>
  <speed>23.62409786637365</speed>
  <fix>3d</fix>
</trkpt>
<trkpt lat="-35.3646748" lon="149.1646058">
  <ele>664.77</ele>
  <time>2026-08-29T18:57:08Z</time>
  <course>79.69</course>
  <speed>23.29</speed>
  <fix>3d</fix>
</trkpt>
<trkpt lat="-35.3645479" lon="149.1648745">
  <ele>665.3</ele>
  <time>2026-08-29T18:57:08Z</time>
  <course>47.05</course>
  <speed>23.87187885358</speed>
  <fix>3d</fix>
</trkpt>
<trkpt lat="-35.3645786" lon="149.1648356">
  <ele>665.01</ele>
  <time>2026-08-29T18:57:08Z</time>
  <course>47.48</course>
  <speed>23.95</speed>
  <fix>3d</fix>
</trkpt>
<trkpt lat="-35.3643738" lon="149.1650226">
  <ele>665.25</ele>
  <time>2026-08-29T18:57:08Z</time>
  <course>29.76</course>
  <speed>23.3055057872598</speed>
  <fix>3d</fix>
</trkpt>
<trkpt lat="-35.3644126" lon="149.1649976">
  <ele>665.29</ele>
  <time>2026-08-29T18:57:08Z</time>
  <course>29.98</course>
  <speed>23.38</speed>
  <fix>3d</fix>
</trkpt>
<trkpt lat="-35.3641751" lon="149.1650907">
  <ele>664.55</ele>
  <time>2026-08-29T18:57:08Z</time>
  <course>8.89</course>
  <speed>22.98704417710115</speed>
  <fix>3d</fix>
</trkpt>
<trkpt lat="-35.3642175" lon="149.165084">
  <ele>664.55</ele>
  <time>2026-08-29T18:57:08Z</time>
  <course>9.36</course>
  <speed>23.08</speed>
  <fix>3d</fix>
</trkpt>
<trkpt lat="-35.363971" lon="149.1650791">
  <ele>663.87</ele>
  <time>2026-08-29T18:57:08Z</time>
  <course>353.7</course>
  <speed>22.616653156468573</speed>
  <fix>3d</fix>
</trkpt>
<trkpt lat="-35.3640124" lon="149.165087">
  <ele>663.9</ele>
  <time>2026-08-29T18:57:08Z</time>
  <course>353.12</course>
  <speed>22.72</speed>
  <fix>3d</fix>
</trkpt>
<trkpt lat="-35.3637764" lon="149.1650133">
  <ele>663.21</ele>
  <time>2026-08-29T18:57:08Z</time>
  <course>342.06</course>
  <speed>22.36305211727594</speed>
  <fix>3d</fix>
</trkpt>
<trkpt lat="-35.363815" lon="149.1650308">
  <ele>663.15</ele>
  <time>2026-08-29T18:57:08Z</time>
  <course>341.39</course>
  <speed>22.49</speed>
  <fix>3d</fix>
</trkpt>
<trkpt lat="-35.3635918" lon="149.1649159">
  <ele>662.81</ele>
  <time>2026-08-29T18:57:08Z</time>
  <course>335.63</course>
  <speed>22.278440250610007</speed>
  <fix>3d</fix>
</trkpt>
<trkpt lat="-35.3636286" lon="149.1649378">
  <ele>662.68</ele>
  <time>2026-08-29T18:57:08Z</time>
  <course>335.22</course>
  <speed>22.36</speed>
  <fix>3d</fix>
</trkpt>
<trkpt lat="-35.3634117" lon="149.1648066">
  <ele>662.76</ele>
  <time>2026-08-29T18:57:08Z</time>
  <course>333.32</course>
  <speed>22.280217682958128</speed>
  <fix>3d</fix>
</trkpt>
<trkpt lat="-35.3634483" lon="149.1648296">
  <ele>662.57</ele>
  <time>2026-08-29T18:57:08Z</time>
  <course>333.33</course>
  <speed>22.33</speed>
  <fix>3d</fix>
</trkpt>
<trkpt lat="-35.3632308" lon="149.1646986">
  <ele>662.9</ele>
  <time>2026-08-29T18:57:08Z</time>
  <course>333.98</course>
  <speed>22.403321182360443</speed>
  <fix>3d</fix>
</trkpt>
<trkpt lat="-35.3632681" lon="149.1647204">
  <ele>662.64</ele>
  <time>2026-08-29T18:57:08Z</time>
  <course>334.38</course>
  <speed>22.41</speed>
  <fix>3d</fix>
</trkpt>
<trkpt lat="-35.3630456" lon="149.1645987">
  <ele>663.11</ele>
  <time>2026-08-29T18:57:08Z</time>
  <course>336.56</course>
  <speed>22.499244431758147</speed>
  <fix>3d</fix>
</trkpt>
<trkpt lat="-35.3630842" lon="149.1646183">
  <ele>662.85</ele>
  <time>2026-08-29T18:57:08Z</time>
  <course>337.09</course>
  <speed>22.51</speed>
  <fix>3d</fix>
</trkpt>
<trkpt lat="-35.3628563" lon="149.1645116">
  <ele>663.39</ele>
  <time>2026-08-29T18:57:08Z</time>
  <course>339.72</course>
  <speed>22.5318996092207</speed>
  <fix>3d</fix>
</trkpt>
<trkpt lat="-35.3628956" lon="149.1645282">
  <ele>663.13</ele>
  <time>2026-08-29T18:57:08Z</time>
  <course>340.31</course>
  <speed>22.55</speed>
  <fix>3d</fix>
</trkpt>
<trkpt lat="-35.3626623" lon="149.1644369">
  <ele>663.61</ele>
  <time>2026-08-29T18:57:08Z</time>
  <course>342.7</course>
  <speed>22.572472172980966</speed>
  <fix>3d</fix>
</trkpt>
<trkpt lat="-35.3627031" lon="149.1644512">
  <ele>663.38</ele>
  <time>2026-08-29T18:57:08Z</time>
  <course>343.41</course>
  <speed>22.54</speed>
  <fix>3d</fix>
</trkpt>
<trkpt lat="-35.3624707" lon="149.1643758">
  <ele>663.81</ele>
  <time>2026-08-29T18:57:08Z</time>
  <course>345.52</course>
  <speed>22.562668281920914</speed>
  <fix>3d</fix>
</trkpt>
<trkpt lat="-35.3625074" lon="149.1643863">
  <ele>663.58</ele>
  <time>2026-08-29T18:57:08Z</time>
  <course>346.22</course>
  <speed>22.56</speed>
  <fix>3d</fix>
</trkpt>
<trkpt lat="-35.3622678" lon="149.1643218">
  <ele>663.95</ele>
  <time>2026-08-29T18:57:08Z</time>
  <course>347.83</course>
  <speed>22.60046459699446</speed>
  <fix>3d</fix>
</trkpt>
<trkpt lat="-35.3623095" lon="149.1643318">
  <ele>663.73</ele>
  <time>2026-08-29T18:57:08Z</time>
  <course>348.39</course>
  <speed>22.58</speed>
  <fix>3d</fix>
</trkpt>
<trkpt lat="-35.3620732" lon="149.1642779">
  <ele>664.04</ele>
  <time>2026-08-29T18:57:08Z</time>
  <course>349.58</course>
  <speed>22.578662493602227</speed>
  <fix>3d</fix>
</trkpt>
<trkpt lat="-35.3621101" lon="149.1642855">
  <ele>663.86</ele>
  <time>2026-08-29T18:57:08Z</time>
  <course>350.1</course>
  <speed>22.61</speed>
  <fix>3d</fix>
</trkpt>
<trkpt lat="-35.361868" lon="149.1642374">
  <ele>664.15</ele>
  <time>2026-08-29T18:57:08Z</time>
  <course>350.82</course>
  <speed>22.587361510366808</speed>
  <fix>3d</fix>
</trkpt>
<trkpt lat="-35.3619096" lon="149.164245">
  <ele>663.95</ele>
  <time>2026-08-29T18:57:08Z</time>
  <course>351.15</course>
  <speed>22.61</speed>
  <fix>3d</fix>
</trkpt>
<trkpt lat="-35.361672" lon="149.1642016">
  <ele>664.21</ele>
  <time>2026-08-29T18:57:08Z</time>
  <course>351.44</course>
  <speed>22.542604108664996</speed>
  <fix>3d</fix>
</trkpt>
<trkpt lat="-35.3617088" lon="149.1642082">
  <ele>664.03</ele>
  <time>2026-08-29T18:57:08Z</time>
  <course>351.7</course>
  <speed>22.6</speed>
  <fix>3d</fix>
</trkpt>
<trkpt lat="-35.3614656" lon="149.1641655">
  <ele>664.28</ele>
  <time>2026-08-29T18:57:08Z</time>
  <course>351.85</course>
  <speed>22.631696798958757</speed>
  <fix>3d</fix>
</trkpt>
<trkpt lat="-35.3615077" lon="149.1641728">
  <ele>664.1</ele>
  <time>2026-08-29T18:57:08Z</time>
  <course>351.95</course>
  <speed>22.62</speed>
  <fix>3d</fix>
</trkpt>
<trkpt lat="-35.3612704" lon="149.1641245">
  <ele>664.26</ele>
  <time>2026-08-29T18:57:08Z</time>
  <course>346.56</course>
  <speed>22.74174355672845</speed>
  <fix>3d</fix>
</trkpt>
<trkpt lat="-35.3613069" lon="149.1641349">
  <ele>664.15</ele>
  <time>2026-08-29T18:57:08Z</time>
  <course>347.63</course>
  <speed>22.67</speed>
  <fix>3d</fix>
</trkpt>
<trkpt lat="-35.3610903" lon="149.1639805">
  <ele>665.06</ele>
  <time>2026-08-29T18:57:08Z</time>
  <course>313.85</course>
  <speed>24.11725523354596</speed>
  <fix>3d</fix>
</trkpt>
<trkpt lat="-35.3611214" lon="149.1640198">
  <ele>664.5</ele>
  <time>2026-08-29T18:57:08Z</time>
  <course>316.04</course>
  <speed>24.1</speed>
  <fix>3d</fix>
</trkpt>
<trkpt lat="-35.3609746" lon="149.1637613">
  <ele>666.33</ele>
  <time>2026-08-29T18:57:08Z</time>
  <course>300.93</course>
  <speed>23.39886535710653</speed>
  <fix>3d</fix>
</trkpt>
<trkpt lat="-35.3609948" lon="149.1638078">
  <ele>666.19</ele>
  <time>2026-08-29T18:57:08Z</time>
  <course>300.03</course>
  <speed>23.57</speed>
  <fix>3d</fix>
</trkpt>
<trkpt lat="-35.3609121" lon="149.1635176">
  <ele>665.92</ele>
  <time>2026-08-29T18:57:08Z</time>
  <course>280.89</course>
  <speed>23.035737452923012</speed>
  <fix>3d</fix>
</trkpt>
<trkpt lat="-35.360919" lon="149.1635707">
  <ele>665.88</ele>
  <time>2026-08-29T18:57:08Z</time>
  <course>281.28</course>
  <speed>22.99</speed>
  <fix>3d</fix>
</trkpt>
<trkpt lat="-35.3609149" lon="149.1632698">
  <ele>665.6</ele>
  <time>2026-08-29T18:57:08Z</time>
  <course>265.1</course>
  <speed>22.477886911362464</speed>
  <fix>3d</fix>
</trkpt>
<trkpt lat="-35.3609101" lon="149.1633207">
  <ele>665.63</ele>
  <time>2026-08-29T18:57:08Z</time>
  <course>265.1</course>
  <speed>22.55</speed>
  <fix>3d</fix>
</trkpt>
<trkpt lat="-35.3609886" lon="149.1630358">
  <ele>664.92</ele>
  <time>2026-08-29T18:57:08Z</time>
  <course>235.55</course>
  <speed>23.52275494069519</speed>
  <fix>3d</fix>
</trkpt>
<trkpt lat="-35.3609644" lon="149.1630814">
  <ele>664.81</ele>
  <time>2026-08-29T18:57:08Z</time>
  <course>239.32</course>
  <speed>23.32</speed>
  <fix>3d</fix>
</trkpt>
<trkpt lat="-35.3611491" lon="149.1628731">
  <ele>665.82</ele>
  <time>2026-08-29T18:57:08Z</time>
  <course>215.22</course>
  <speed>23.164328179336437</speed>
  <fix>3d</fix>
</trkpt>
<trkpt lat="-35.3611132" lon="149.1629014">
  <ele>665.65</ele>
  <time>2026-08-29T18:57:08Z</time>
  <course>214.25</course>
  <speed>23.33</speed>
  <fix>3d</fix>
</trkpt>
<trkpt lat="-35.361339" lon="149.1627762">
  <ele>665.21</ele>
  <time>2026-08-29T18:57:08Z</time>
  <course>196.73</course>
  <speed>22.761030293024966</speed>
  <fix>3d</fix>
</trkpt>
<trkpt lat="-35.3612978" lon="149.1627894">
  <ele>665.25</ele>
  <time>2026-08-29T18:57:08Z</time>
  <course>197.2</course>
  <speed>22.78</speed>
  <fix>3d</fix>
</trkpt>
<trkpt lat="-35.3615408" lon="149.1627598">
  <ele>664.64</ele>
  <time>2026-08-29T18:57:08Z</time>
  <course>179.16</course>
  <speed>22.48897507669036</speed>
  <fix>3d</fix>
</trkpt>
<trkpt lat="-35.3614991" lon="149.1627568">
  <ele>664.61</ele>
  <time>2026-08-29T18:57:08Z</time>
  <course>178.68</course>
  <speed>22.58</speed>
  <fix>3d</fix>
</trkpt>
<trkpt lat="-35.3617386" lon="149.1628048">
  <ele>663.94</ele>
  <time>2026-08-29T18:57:08Z</time>
  <course>166.78</course>
  <speed>22.288402814019673</speed>
  <fix>3d</fix>
</trkpt>
<trkpt lat="-35.3616983" lon="149.1627909">
  <ele>663.93</ele>
  <time>2026-08-29T18:57:08Z</time>
  <course>166.09</course>
  <speed>22.33</speed>
  <fix>3d</fix>
</trkpt>
<trkpt lat="-35.3619254" lon="149.1628889">
  <ele>663.47</ele>
  <time>2026-08-29T18:57:08Z</time>
  <course>158.45</course>
  <speed>22.117377783091737</speed>
  <fix>3d</fix>
</trkpt>
<trkpt lat="-35.3618879" lon="149.1628688">
  <ele>663.38</ele>
  <time>2026-08-29T18:57:08Z</time>
  <course>157.77</course>
  <speed>22.2</speed>
  <fix>3d</fix>
</trkpt>
<trkpt lat="-35.3621061" lon="149.1629915">
  <ele>663.2</ele>
  <time>2026-08-29T18:57:08Z</time>
  <course>154.67</course>
  <speed>22.156181981559907</speed>
  <fix>3d</fix>
</trkpt>
<trkpt lat="-35.3620696" lon="149.1629692">
  <ele>663.04</ele>
  <time>2026-08-29T18:57:08Z</time>
  <course>154.34</course>
  <speed>22.22</speed>
  <fix>3d</fix>
</trkpt>
<trkpt lat="-35.3622862" lon="149.1630984">
  <ele>663.15</ele>
  <time>2026-08-29T18:57:08Z</time>
  <course>154.22</course>
  <speed>22.28002019747738</speed>
  <fix>3d</fix>
</trkpt>
<trkpt lat="-35.3622497" lon="149.1630766">
  <ele>662.97</ele>
  <time>2026-08-29T18:57:08Z</time>
  <course>154.24</course>
  <speed>22.34</speed>
  <fix>3d</fix>
</trkpt>
<trkpt lat="-35.3624699" lon="149.1632004">
  <ele>663.3</ele>
  <time>2026-08-29T18:57:08Z</time>
  <course>155.82</course>
  <speed>22.420582062025066</speed>
  <fix>3d</fix>
</trkpt>
<trkpt lat="-35.3624322" lon="149.1631803">
  <ele>663.08</ele>
  <time>2026-08-29T18:57:08Z</time>
  <course>156.16</course>
  <speed>22.45</speed>
  <fix>3d</fix>
</trkpt>
<trkpt lat="-35.3626581" lon="149.1632926">
  <ele>663.51</ele>
  <time>2026-08-29T18:57:09Z</time>
  <course>158.47</course>
  <speed>22.501471063021636</speed>
  <fix>3d</fix>
</trkpt>
<trkpt lat="-35.362619" lon="149.1632749">
  <ele>663.28</ele>
  <time>2026-08-29T18:57:09Z</time>
  <course>159.05</course>
  <speed>22.51</speed>
  <fix>3d</fix>
</trkpt>
<trkpt lat="-35.3628499" lon="149.1633729">
  <ele>663.67</ele>
  <time>2026-08-29T18:57:09Z</time>
  <course>161.53</course>
  <speed>22.58002878651841</speed>
  <fix>3d</fix>
</trkpt>
<trkpt lat="-35.3628099" lon="149.1633577">
  <ele>663.48</ele>
  <time>2026-08-29T18:57:09Z</time>
  <course>161.99</course>
  <speed>22.56</speed>
  <fix>3d</fix>
</trkpt>
<trkpt lat="-35.3630452" lon="149.1634416">
  <ele>663.87</ele>
  <time>2026-08-29T18:57:09Z</time>
  <course>164.34</course>
  <speed>22.588397464185014</speed>
  <fix>3d</fix>
</trkpt>
<trkpt lat="-35.3630043" lon="149.1634287">
  <ele>663.69</ele>
  <time>2026-08-29T18:57:09Z</time>
  <course>164.76</course>
  <speed>22.59</speed>
  <fix>3d</fix>
</trkpt>
<trkpt lat="-35.3632419" lon="149.1634999">
  <ele>664.0</ele>
  <time>2026-08-29T18:57:09Z</time>
  <course>166.71</course>
  <speed>22.567323722586156</speed>
  <fix>3d</fix>
</trkpt>
<trkpt lat="-35.3632011" lon="149.163489">
  <ele>663.83</ele>
  <time>2026-08-29T18:57:09Z</time>
  <course>167.07</course>
  <speed>22.58</speed>
  <fix>3d</fix>
</trkpt>
<trkpt lat="-35.3634415" lon="149.1635503">
  <ele>664.08</ele>
  <time>2026-08-29T18:57:09Z</time>
  <course>168.6</course>
  <speed>22.625140883539267</speed>
  <fix>3d</fix>
</trkpt>
<trkpt lat="-35.3633998" lon="149.1635408">
  <ele>663.93</ele>
  <time>2026-08-29T18:57:09Z</time>
  <course>168.89</course>
  <speed>22.61</speed>
  <fix>3d</fix>
</trkpt>
<trkpt lat="-35.3636368" lon="149.1635937">
  <ele>664.2</ele>
  <time>2026-08-29T18:57:09Z</time>
  <course>169.79</course>
  <speed>22.588784827874207</speed>
  <fix>3d</fix>
</trkpt>
<trkpt lat="-35.3635996" lon="149.1635859">
  <ele>664.04</ele>
  <time>2026-08-29T18:57:09Z</time>
  <course>170.03</course>
  <speed>22.61</speed>
  <fix>3d</fix>
</trkpt>
<trkpt lat="-35.3638417" lon="149.1636356">
  <ele>664.27</ele>
  <time>2026-08-29T18:57:09Z</time>
  <course>170.48</course>
  <speed>22.59858623896637</speed>
  <fix>3d</fix>
</trkpt>
<trkpt lat="-35.3637998" lon="149.1636274">
  <ele>664.11</ele>
  <time>2026-08-29T18:57:09Z</time>
  <course>170.71</course>
  <speed>22.59</speed>
  <fix>3d</fix>
</trkpt>
<trkpt lat="-35.3640372" lon="149.163674">
  <ele>664.3</ele>
  <time>2026-08-29T18:57:09Z</time>
  <course>170.81</course>
  <speed>22.577663740963104</speed>
  <fix>3d</fix>
</trkpt>
<trkpt lat="-35.3640003" lon="149.1636669">
  <ele>664.15</ele>
  <time>2026-08-29T18:57:09Z</time>
  <course>170.96</course>
  <speed>22.62</speed>
  <fix>3d</fix>
</trkpt>
<trkpt lat="-35.3642427" lon="149.1637144">
  <ele>664.35</ele>
  <time>2026-08-29T18:57:09Z</time>
  <course>168.56</course>
  <speed>22.63169900824947</speed>
  <fix>3d</fix>
</trkpt>
<trkpt lat="-35.3642013" lon="149.163706">
  <ele>664.2</ele>
  <time>2026-08-29T18:57:09Z</time>
  <course>170.79</course>
  <speed>22.65</speed>
  <fix>3d</fix>
</trkpt>
<trkpt lat="-35.3644301" lon="149.1638047">
  <ele>664.3</ele>
  <time>2026-08-29T18:57:09Z</time>
  <course>146.81</course>
  <speed>23.95888561682283</speed>
  <fix>3d</fix>
</trkpt>
<trkpt lat="-35.3643969" lon="149.1637797">
  <ele>664.07</ele>
  <time>2026-08-29T18:57:09Z</time>
  <course>149.68</course>
  <speed>23.7</speed>
  <fix>3d</fix>
</trkpt>
<trkpt lat="-35.364572" lon="149.1640118">
  <ele>666.11</ele>
  <time>2026-08-29T18:57:09Z</time>
  <course>126.54</course>
  <speed>23.838382914954614</speed>
  <fix>3d</fix>
</trkpt>
<trkpt lat="-35.3645475" lon="149.1639657">
  <ele>665.77</ele>
  <time>2026-08-29T18:57:09Z</time>
  <course>124.73</course>
  <speed>23.9</speed>
  <fix>3d</fix>
</trkpt>
<trkpt lat="-35.3646587" lon="149.1642386">
  <ele>666.0</ele>
  <time>2026-08-29T18:57:09Z</time>
  <course>109.77</course>
  <speed>23.11649194839044</speed>
  <fix>3d</fix>
</trkpt>
<trkpt lat="-35.364647" lon="149.1641933">
  <ele>665.94</ele>
  <time>2026-08-29T18:57:09Z</time>
  <course>109.84</course>
  <speed>23.17</speed>
  <fix>3d</fix>
</trkpt>
<trkpt lat="-35.3646827" lon="149.1644944">
  <ele>665.72</ele>
  <time>2026-08-29T18:57:09Z</time>
  <course>91.6</course>
  <speed>22.71048436295448</speed>
  <fix>3d</fix>
</trkpt>
<trkpt lat="-35.3646832" lon="149.1644413">
  <ele>665.69</ele>
  <time>2026-08-29T18:57:09Z</time>
  <course>91.35</course>
  <speed>22.75</speed>
  <fix>3d</fix>
</trkpt>
<trkpt lat="-35.364636" lon="149.164736">
  <ele>665.19</ele>
  <time>2026-08-29T18:57:09Z</time>
  <course>64.33</course>
  <speed>23.4081182498722</speed>
  <fix>3d</fix>
</trkpt>
<trkpt lat="-35.3646538" lon="149.164688">
  <ele>665.11</ele>
  <time>2026-08-29T18:57:09Z</time>
  <course>68.03</course>
  <speed>23.25</speed>
  <fix>3d</fix>
</trkpt>
<trkpt lat="-35.3644926" lon="149.1649249">
  <ele>666.02</ele>
  <time>2026-08-29T18:57:09Z</time>
  <course>41.4</course>
  <speed>23.31228860493967</speed>
  <fix>3d</fix>
</trkpt>
<trkpt lat="-35.364527" lon="149.1648912">
  <ele>665.85</ele>
  <time>2026-08-29T18:57:09Z</time>
  <course>40.8</course>
  <speed>23.38</speed>
  <fix>3d</fix>
</trkpt>
<trkpt lat="-35.3643131" lon="149.1650445">
  <ele>665.69</ele>
  <time>2026-08-29T18:57:09Z</time>
  <course>22.4</course>
  <speed>22.695878480464245</speed>
  <fix>3d</fix>
</trkpt>
<trkpt lat="-35.3643524" lon="149.1650265">
  <ele>665.69</ele>
  <time>2026-08-29T18:57:09Z</time>
  <course>22.95</course>
  <speed>22.8</speed>
  <fix>3d</fix>
</trkpt>
<trkpt lat="-35.3641124" lon="149.165084">
  <ele>664.98</ele>
  <time>2026-08-29T18:57:09Z</time>
  <course>3.79</course>
  <speed>22.510002221234895</speed>
  <fix>3d</fix>
</trkpt>
<trkpt lat="-35.3641551" lon="149.1650829">
  <ele>665.02</ele>
  <time>2026-08-29T18:57:09Z</time>
  <course>3.72</course>
  <speed>22.54</speed>
  <fix>3d</fix>
</trkpt>
<trkpt lat="-35.3639148" lon="149.1650545">
  <ele>664.3</ele>
  <time>2026-08-29T18:57:09Z</time>
  <course>349.66</course>
  <speed>22.185603440068967</speed>
  <fix>3d</fix>
</trkpt>
<trkpt lat="-35.3639547" lon="149.1650656">
  <ele>664.3</ele>
  <time>2026-08-29T18:57:09Z</time>
  <course>349.09</course>
  <speed>22.29</speed>
  <fix>3d</fix>
</trkpt>
<trkpt lat="-35.3637254" lon="149.1649784">
  <ele>663.65</ele>
  <time>2026-08-29T18:57:09Z</time>
  <course>340.07</course>
  <speed>22.085246206461</speed>
  <fix>3d</fix>
</trkpt>
<trkpt lat="-35.3637633" lon="149.1649974">
  <ele>663.62</ele>
  <time>2026-08-29T18:57:09Z</time>
  <course>339.37</course>
  <speed>22.14</speed>
  <fix>3d</fix>
</trkpt>
<trkpt lat="-35.3635448" lon="149.1648787">
  <ele>663.3</ele>
  <time>2026-08-29T18:57:09Z</time>
  <course>335.04</course>
  <speed>22.080620462296796</speed>
  <fix>3d</fix>
</trkpt>
<trkpt lat="-35.3635808" lon="149.1649006">
  <ele>663.18</ele>
  <time>2026-08-29T18:57:09Z</time>
  <course>334.65</course>
  <speed>22.16</speed>
  <fix>3d</fix>
</trkpt>
<trkpt lat="-35.3633646" lon="149.1647709">
  <ele>663.14</ele>
  <time>2026-08-29T18:57:09Z</time>
  <course>333.84</course>
  <speed>22.267979252729692</speed>
  <fix>3d</fix>
</trkpt>
<trkpt lat="-35.3634015" lon="149.1647934">
  <ele>662.97</ele>
  <time>2026-08-29T18:57:09Z</time>
  <course>333.88</course>
  <speed>22.27</speed>
  <fix>3d</fix>
</trkpt>
<trkpt lat="-35.3631828" lon="149.1646669">
  <ele>663.27</ele>
  <time>2026-08-29T18:57:09Z</time>
  <course>335.1</course>
  <speed>22.367076250596547</speed>
  <fix>3d</fix>
</trkpt>
<trkpt lat="-35.3632202" lon="149.1646877">
  <ele>663.04</ele>
  <time>2026-08-29T18:57:09Z</time>
  <course>335.53</course>
  <speed>22.39</speed>
  <fix>3d</fix>
</trkpt>
<trkpt lat="-35.362996" lon="149.1645723">
  <ele>663.41</ele>
  <time>2026-08-29T18:57:09Z</time>
  <course>337.86</course>
  <speed>22.526049365123928</speed>
  <fix>3d</fix>
</trkpt>
<trkpt lat="-35.3630348" lon="149.1645906">
  <ele>663.17</ele>
  <time>2026-08-29T18:57:09Z</time>
  <course>338.36</course>
  <speed>22.51</speed>
  <fix>3d</fix>
</trkpt>
<trkpt lat="-35.3628048" lon="149.1644902">
  <ele>663.66</ele>
  <time>2026-08-29T18:57:09Z</time>
  <course>340.98</course>
  <speed>22.549257193974263</speed>
  <fix>3d</fix>
</trkpt>
<trkpt lat="-35.3628444" lon="149.1645057">
  <ele>663.4</ele>
  <time>2026-08-29T18:57:09Z</time>
  <course>341.62</course>
  <speed>22.56</speed>
  <fix>3d</fix>
</trkpt>
<trkpt lat="-35.3626099" lon="149.1644203">
  <ele>663.8</ele>
  <time>2026-08-29T18:57:09Z</time>
  <course>343.89</course>
  <speed>22.606691487256597</speed>
  <fix>3d</fix>
</trkpt>
<trkpt lat="-35.3626504" lon="149.1644334">
  <ele>663.56</ele>
  <time>2026-08-29T18:57:09Z</time>
  <course>344.5</course>
  <speed>22.58</speed>
  <fix>3d</fix>
</trkpt>
<trkpt lat="-35.3624122" lon="149.1643617">
  <ele>663.97</ele>
  <time>2026-08-29T18:57:09Z</time>
  <course>346.69</course>
  <speed>22.597842817401844</speed>
  <fix>3d</fix>
</trkpt>
<trkpt lat="-35.3624535" lon="149.1643727">
  <ele>663.74</ele>
  <time>2026-08-29T18:57:09Z</time>
  <course>347.19</course>
  <speed>22.58</speed>
  <fix>3d</fix>
</trkpt>
<trkpt lat="-35.3622134" lon="149.1643127">
  <ele>664.02</ele>
  <time>2026-08-29T18:57:09Z</time>
  <course>348.78</course>
  <speed>22.62278939476739</speed>
  <fix>3d</fix>
</trkpt>
<trkpt lat="-35.3622549" lon="149.164322">
  <ele>663.83</ele>
  <time>2026-08-29T18:57:09Z</time>
  <course>349.21</course>
  <speed>22.59</speed>
  <fix>3d</fix>
</trkpt>
<trkpt lat="-35.362013" lon="149.1642704">
  <ele>664.14</ele>
  <time>2026-08-29T18:57:09Z</time>
  <course>350.28</course>
  <speed>22.618331061331645</speed>
  <fix>3d</fix>
</trkpt>
<trkpt lat="-35.3620548" lon="149.1642787">
  <ele>663.94</ele>
  <time>2026-08-29T18:57:09Z</time>
  <course>350.63</course>
  <speed>22.61</speed>
  <fix>3d</fix>
</trkpt>
<trkpt lat="-35.3618128" lon="149.1642323">
  <ele>664.2</ele>
  <time>2026-08-29T18:57:09Z</time>
  <course>351.22</course>
  <speed>22.59671215022221</speed>
  <fix>3d</fix>
</trkpt>
<trkpt lat="-35.3618541" lon="149.1642398">
  <ele>664.02</ele>
  <time>2026-08-29T18:57:09Z</time>
  <course>351.41</course>
  <speed>22.62</speed>
  <fix>3d</fix>
</trkpt>
<trkpt lat="-35.3616109" lon="149.1641963">
  <ele>664.25</ele>
  <time>2026-08-29T18:57:09Z</time>
  <course>351.72</course>
  <speed>22.637316537080977</speed>
  <fix>3d</fix>
</trkpt>
<trkpt lat="-35.3616529" lon="149.1642037">
  <ele>664.09</ele>
  <time>2026-08-29T18:57:09Z</time>
  <course>351.83</course>
  <speed>22.63</speed>
  <fix>3d</fix>
</trkpt>
<trkpt lat="-35.3614141" lon="149.164162">
  <ele>664.29</ele>
  <time>2026-08-29T18:57:09Z</time>
  <course>351.65</course>
  <speed>22.633095236842884</speed>
  <fix>3d</fix>
</trkpt>
<trkpt lat="-35.3614515" lon="149.1641685">
  <ele>664.14</ele>
  <time>2026-08-29T18:57:09Z</time>
  <course>351.93</course>
  <speed>22.66</speed>
  <fix>3d</fix>
</trkpt>
<trkpt lat="-35.3612109" lon="149.1641013">
  <ele>664.09</ele>
  <time>2026-08-29T18:57:09Z</time>
  <course>337.82</course>
  <speed>23.537153608709783</speed>
  <fix>3d</fix>
</trkpt>
<trkpt lat="-35.3612514" lon="149.1641202">
  <ele>664.06</ele>
  <time>2026-08-29T18:57:09Z</time>
  <course>340.54</course>
  <speed>23.09</speed>
  <fix>3d</fix>
</trkpt>
<trkpt lat="-35.3610577" lon="149.1639278">
  <ele>665.71</ele>
  <time>2026-08-29T18:57:09Z</time>
  <course>310.06</course>
  <speed>23.99585380852284</speed>
  <fix>3d</fix>
</trkpt>
<trkpt lat="-35.3610819" lon="149.1639658">
  <ele>665.27</ele>
  <time>2026-08-29T18:57:09Z</time>
  <course>308.8</course>
  <speed>24.06</speed>
  <fix>3d</fix>
</trkpt>
<trkpt lat="-35.3609504" lon="149.163696">
  <ele>666.13</ele>
  <time>2026-08-29T18:57:09Z</time>
  <course>295.46</course>
  <speed>23.306765112301623</speed>
  <fix>3d</fix>
</trkpt>
<trkpt lat="-35.3609677" lon="149.163745">
  <ele>666.15</ele>
  <time>2026-08-29T18:57:09Z</time>
  <course>295.46</course>
  <speed>23.35</speed>
  <fix>3d</fix>
</trkpt>
<trkpt lat="-35.3609101" lon="149.1634545">
  <ele>665.96</ele>
  <time>2026-08-29T18:57:09Z</time>
  <course>276.29</course>
  <speed>22.819368965858807</speed>
  <fix>3d</fix>
</trkpt>
<trkpt lat="-35.3609126" lon="149.1635011">
  <ele>665.91</ele>
  <time>2026-08-29T18:57:09Z</time>
  <course>275.56</course>
  <speed>22.89</speed>
  <fix>3d</fix>
</trkpt>
<trkpt lat="-35.3609272" lon="149.1632009">
  <ele>665.3</ele>
  <time>2026-08-29T18:57:09Z</time>
  <course>259.35</course>
  <speed>22.645710410583284</speed>
  <fix>3d</fix>
</trkpt>
<trkpt lat="-35.3609186" lon="149.1632522">
  <ele>665.44</ele>
  <time>2026-08-29T18:57:09Z</time>
  <course>260.68</course>
  <speed>22.47</speed>
  <fix>3d</fix>
</trkpt>
<trkpt lat="-35.3610284" lon="149.1629892">
  <ele>665.35</ele>
  <time>2026-08-29T18:57:09Z</time>
  <course>227.77</course>
  <speed>23.437359066242937</speed>
  <fix>3d</fix>
</trkpt>
<trkpt lat="-35.3610022" lon="149.1630245">
  <ele>665.11</ele>
  <time>2026-08-29T18:57:09Z</time>
  <course>229.16</course>
  <speed>23.43</speed>
  <fix>3d</fix>
</trkpt>
<trkpt lat="-35.3612037" lon="149.1628396">
  <ele>665.78</ele>
  <time>2026-08-29T18:57:09Z</time>
  <course>210.63</course>
  <speed>22.986822311924715</speed>
  <fix>3d</fix>
</trkpt>
<trkpt lat="-35.3611654" lon="149.1628648">
  <ele>665.81</ele>
  <time>2026-08-29T18:57:09Z</time>
  <course>210.39</course>
  <speed>23.05</speed>
  <fix>3d</fix>
</trkpt>
<trkpt lat="-35.3613969" lon="149.1627672">
  <ele>665.3</ele>
  <time>2026-08-29T18:57:09Z</time>
  <course>191.06</course>
  <speed>22.55335451767652</speed>
  <fix>3d</fix>
</trkpt>
<trkpt lat="-35.3613557" lon="149.1627752">
  <ele>665.32</ele>
  <time>2026-08-29T18:57:09Z</time>
  <course>191.22</course>
  <speed>22.64</speed>
  <fix>3d</fix>
</trkpt>
<trkpt lat="-35.3615989" lon="149.1627695">
  <ele>664.68</ele>
  <time>2026-08-29T18:57:10Z</time>
  <course>175.75</course>
  <speed>22.31665297485266</speed>
  <fix>3d</fix>
</trkpt>
<trkpt lat="-35.361557" lon="149.1627633">
  <ele>664.75</ele>
  <time>2026-08-29T18:57:10Z</time>
  <course>175.16</course>
  <speed>22.35</speed>
  <fix>3d</fix>
</trkpt>
<trkpt lat="-35.3617915" lon="149.1628259">
  <ele>664.05</ele>
  <time>2026-08-29T18:57:10Z</time>
  <course>164.19</course>
  <speed>22.082266640904418</speed>
  <fix>3d</fix>
</trkpt>
<trkpt lat="-35.3617529" lon="149.1628103">
  <ele>664.05</ele>
  <time>2026-08-29T18:57:10Z</time>
  <course>163.41</course>
  <speed>22.18</speed>
  <fix>3d</fix>
</trkpt>
<trkpt lat="-35.361977" lon="149.1629161">
  <ele>663.52</ele>
  <time>2026-08-29T18:57:10Z</time>
  <course>157.42</course>
  <speed>22.088107660005644</speed>
  <fix>3d</fix>
</trkpt>
<trkpt lat="-35.3619392" lon="149.1628949">
  <ele>663.49</ele>
  <time>2026-08-29T18:57:10Z</time>
  <course>156.75</course>
  <speed>22.12</speed>
  <fix>3d</fix>
</trkpt>
<trkpt lat="-35.3621562" lon="149.1630191">
  <ele>663.34</ele>
  <time>2026-08-29T18:57:10Z</time>
  <course>154.62</course>
  <speed>22.130280160901716</speed>
  <fix>3d</fix>
</trkpt>
<trkpt lat="-35.36212" lon="149.1629972">
  <ele>663.2</ele>
  <time>2026-08-29T18:57:10Z</time>
  <course>154.38</course>
  <speed>22.21</speed>
  <fix>3d</fix>
</trkpt>
<trkpt lat="-35.3623378" lon="149.1631244">
  <ele>663.27</ele>
  <time>2026-08-29T18:57:10Z</time>
  <course>154.76</course>
  <speed>22.340693811965643</speed>
  <fix>3d</fix>
</trkpt>
<trkpt lat="-35.3623005" lon="149.1631029">
  <ele>663.11</ele>
  <time>2026-08-29T18:57:10Z</time>
  <course>154.88</course>
  <speed>22.35</speed>
  <fix>3d</fix>
</trkpt>
<trkpt lat="-35.3625221" lon="149.1632231">
  <ele>663.44</ele>
  <time>2026-08-29T18:57:10Z</time>
  <course>156.78</course>
  <speed>22.432735009356307</speed>
  <fix>3d</fix>
</trkpt>
<trkpt lat="-35.3624844" lon="149.1632039">
  <ele>663.24</ele>
  <time>2026-08-29T18:57:10Z</time>
  <course>157.06</course>
  <speed>22.48</speed>
  <fix>3d</fix>
</trkpt>
<trkpt lat="-35.3627122" lon="149.1633122">
  <ele>663.58</ele>
  <time>2026-08-29T18:57:10Z</time>
  <course>159.39</course>
  <speed>22.572419010819377</speed>
  <fix>3d</fix>
</trkpt>
<trkpt lat="-35.3626726" lon="149.1632951">
  <ele>663.37</ele>
  <time>2026-08-29T18:57:10Z</time>
  <course>159.86</course>
  <speed>22.56</speed>
  <fix>3d</fix>
</trkpt>
<trkpt lat="-35.3629048" lon="149.1633893">
  <ele>663.78</ele>
  <time>2026-08-29T18:57:10Z</time>
  <course>162.25</course>
  <speed>22.57793613242805</speed>
  <fix>3d</fix>
</trkpt>
<trkpt lat="-35.3628648" lon="149.1633747">
  <ele>663.57</ele>
  <time>2026-08-29T18:57:10Z</time>
  <course>162.74</course>
  <speed>22.58</speed>
  <fix>3d</fix>
</trkpt>
<trkpt lat="-35.3631011" lon="149.1634557">
  <ele>663.94</ele>
  <time>2026-08-29T18:57:10Z</time>
  <course>164.84</course>
  <speed>22.621310748937603</speed>
  <fix>3d</fix>
</trkpt>
<trkpt lat="-35.3630599" lon="149.1634432">
  <ele>663.73</ele>
  <time>2026-08-29T18:57:10Z</time>
  <course>165.3</course>
  <speed>22.6</speed>
  <fix>3d</fix>
</trkpt>
<trkpt lat="-35.3632984" lon="149.1635122">
  <ele>664.07</ele>
  <time>2026-08-29T18:57:10Z</time>
  <course>167.12</course>
  <speed>22.58863652370368</speed>
  <fix>3d</fix>
</trkpt>
<trkpt lat="-35.3632573" lon="149.1635016">
  <ele>663.86</ele>
  <time>2026-08-29T18:57:10Z</time>
  <course>167.5</course>
  <speed>22.6</speed>
  <fix>3d</fix>
</trkpt>
<trkpt lat="-35.3634975" lon="149.1635612">
  <ele>664.15</ele>
  <time>2026-08-29T18:57:10Z</time>
  <course>168.85</course>
  <speed>22.6042230567653</speed>
  <fix>3d</fix>
</trkpt>
<trkpt lat="-35.3634562" lon="149.1635518">
  <ele>663.94</ele>
  <time>2026-08-29T18:57:10Z</time>
  <course>169.12</course>
  <speed>22.61</speed>
  <fix>3d</fix>
</trkpt>
<trkpt lat="-35.3636975" lon="149.1636049">
  <ele>664.22</ele>
  <time>2026-08-29T18:57:10Z</time>
  <course>170.01</course>
  <speed>22.565462547884987</speed>
  <fix>3d</fix>
</trkpt>
<trkpt lat="-35.3636561" lon="149.1635964">
  <ele>664.01</ele>
  <time>2026-08-29T18:57:10Z</time>
  <course>170.18</course>
  <speed>22.58</speed>
  <fix>3d</fix>
</trkpt>
<trkpt lat="-35.3638975" lon="149.1636455">
  <ele>664.25</ele>
  <time>2026-08-29T18:57:10Z</time>
  <course>170.57</course>
  <speed>22.596995375491847</speed>
  <fix>3d</fix>
</trkpt>
<trkpt lat="-35.3638561" lon="149.1636373">
  <ele>664.07</ele>
  <time>2026-08-29T18:57:10Z</time>
  <course>170.76</course>
  <speed>22.6</speed>
  <fix>3d</fix>
</trkpt>
<trkpt lat="-35.3640984" lon="149.1636847">
  <ele>664.31</ele>
  <time>2026-08-29T18:57:10Z</time>
  <course>170.96</course>
  <speed>22.594302379139744</speed>
  <fix>3d</fix>
</trkpt>
<trkpt lat="-35.3640568" lon="149.1636768">
  <ele>664.13</ele>
  <time>2026-08-29T18:57:10Z</time>
  <course>170.99</course>
  <speed>22.62</speed>
  <fix>3d</fix>
</trkpt>
<trkpt lat="-35.364298" lon="149.1637286">
  <ele>664.26</ele>
  <time>2026-08-29T18:57:10Z</time>
  <course>166.52</course>
  <speed>22.729874614700364</speed>
  <fix>3d</fix>
</trkpt>
<trkpt lat="-35.3642574" lon="149.1637173">
  <ele>664.13</ele>
  <time>2026-08-29T18:57:10Z</time>
  <course>168.09</course>
  <speed>22.68</speed>
  <fix>3d</fix>
</trkpt>
<trkpt lat="-35.364478" lon="149.1638607">
  <ele>664.84</ele>
  <time>2026-08-29T18:57:10Z</time>
  <course>136.47</course>
  <speed>24.071746924558674</speed>
  <fix>3d</fix>
</trkpt>
<trkpt lat="-35.3644455" lon="149.1638242">
  <ele>664.35</ele>
  <time>2026-08-29T18:57:10Z</time>
  <course>138.96</course>
  <speed>24.06</speed>
  <fix>3d</fix>
</trkpt>
<trkpt lat="-35.364598" lon="149.1640721">
  <ele>666.15</ele>
  <time>2026-08-29T18:57:10Z</time>
  <course>122.96</course>
  <speed>23.533416666519123</speed>
  <fix>3d</fix>
</trkpt>
<trkpt lat="-35.3645784" lon="149.1640306">
  <ele>666.0</ele>
  <time>2026-08-29T18:57:10Z</time>
  <course>121.49</course>
  <speed>23.66</speed>
  <fix>3d</fix>
</trkpt>
<trkpt lat="-35.3646697" lon="149.1643178">
  <ele>665.85</ele>
  <time>2026-08-29T18:57:10Z</time>
  <course>103.29</course>
  <speed>23.07834482799839</speed>
  <fix>3d</fix>
</trkpt>
<trkpt lat="-35.3646608" lon="149.1642655">
  <ele>665.82</ele>
  <time>2026-08-29T18:57:10Z</time>
  <course>103.59</course>
  <speed>23.07</speed>
  <fix>3d</fix>
</trkpt>
<trkpt lat="-35.3646743" lon="149.1645617">
  <ele>665.58</ele>
  <time>2026-08-29T18:57:10Z</time>
  <course>86.3</course>
  <speed>22.75171422113068</speed>
  <fix>3d</fix>
</trkpt>
<trkpt lat="-35.3646777" lon="149.1645154">
  <ele>665.63</ele>
  <time>2026-08-29T18:57:10Z</time>
  <course>86.56</course>
  <speed>22.69</speed>
  <fix>3d</fix>
</trkpt>
<trkpt lat="-35.3645904" lon="149.1647988">
  <ele>665.57</ele>
  <time>2026-08-29T18:57:10Z</time>
  <course>53.81</course>
  <speed>23.52306952759354</speed>
  <fix>3d</fix>
</trkpt>
<trkpt lat="-35.3646161" lon="149.1647554">
  <ele>665.33</ele>
  <time>2026-08-29T18:57:10Z</time>
  <course>55.94</course>
  <speed>23.49</speed>
  <fix>3d</fix>
</trkpt>
<trkpt lat="-35.364436" lon="149.1649614">
  <ele>666.15</ele>
  <time>2026-08-29T18:57:10Z</time>
  <course>36.63</course>
  <speed>22.92157498951588</speed>
  <fix>3d</fix>
</trkpt>
<trkpt lat="-35.3644675" lon="149.1649354">
  <ele>666.08</ele>
  <time>2026-08-29T18:57:10Z</time>
  <course>35.92</course>
  <speed>23.08</speed>
  <fix>3d</fix>
</trkpt>
<trkpt lat="-35.3642438" lon="149.1650603">
  <ele>665.5</ele>
  <time>2026-08-29T18:57:10Z</time>
  <course>16.0</course>
  <speed>22.61313998541556</speed>
  <fix>3d</fix>
</trkpt>
<trkpt lat="-35.3642852" lon="149.1650474">
  <ele>665.55</ele>
  <time>2026-08-29T18:57:10Z</time>
  <course>16.54</course>
  <speed>22.61</speed>
  <fix>3d</fix>
</trkpt>
<trkpt lat="-35.3640483" lon="149.1650749">
  <ele>664.96</ele>
  <time>2026-08-29T18:57:10Z</time>
  <course>359.37</course>
  <speed>22.261233119483745</speed>
  <fix>3d</fix>
</trkpt>
<trkpt lat="-35.3640854" lon="149.1650775">
  <ele>664.96</ele>
  <time>2026-08-29T18:57:10Z</time>
  <course>358.55</course>
  <speed>22.36</speed>
  <fix>3d</fix>
</trkpt>
<trkpt lat="-35.3638479" lon="149.1650287">
  <ele>664.17</ele>
  <time>2026-08-29T18:57:10Z</time>
  <course>346.34</course>
  <speed>22.107595979662737</speed>
  <fix>3d</fix>
</trkpt>
<trkpt lat="-35.363888" lon="149.165043">
  <ele>664.19</ele>
  <time>2026-08-29T18:57:10Z</time>
  <course>345.6</course>
  <speed>22.14</speed>
  <fix>3d</fix>
</trkpt>
<trkpt lat="-35.3636671" lon="149.1649466">
  <ele>663.67</ele>
  <time>2026-08-29T18:57:10Z</time>
  <course>338.34</course>
  <speed>21.96383618587609</speed>
  <fix>3d</fix>
</trkpt>
<trkpt lat="-35.3637005" lon="149.1649645">
  <ele>663.6</ele>
  <time>2026-08-29T18:57:10Z</time>
  <course>337.64</course>
  <speed>22.05</speed>
  <fix>3d</fix>
</trkpt>
<trkpt lat="-35.3634826" lon="149.1648414">
  <ele>663.28</ele>
  <time>2026-08-29T18:57:10Z</time>
  <course>334.64</course>
  <speed>22.147191695562668</speed>
  <fix>3d</fix>
</trkpt>
<trkpt lat="-35.3635198" lon="149.1648641">
  <ele>663.15</ele>
  <time>2026-08-29T18:57:10Z</time>
  <course>334.32</course>
  <speed>22.15</speed>
  <fix>3d</fix>
</trkpt>
<trkpt lat="-35.3633032" lon="149.1647361">
  <ele>663.23</ele>
  <time>2026-08-29T18:57:10Z</time>
  <course>334.49</course>
  <speed>22.26070978203525</speed>
  <fix>3d</fix>
</trkpt>
<trkpt lat="-35.3633399" lon="149.1647577">
  <ele>663.04</ele>
  <time>2026-08-29T18:57:10Z</time>
  <course>334.6</course>
  <speed>22.31</speed>
  <fix>3d</fix>
</trkpt>
<trkpt lat="-35.363118" lon="149.1646353">
  <ele>663.32</ele>
  <time>2026-08-29T18:57:10Z</time>
  <course>336.19</course>
  <speed>22.477744548775348</speed>
  <fix>3d</fix>
</trkpt>
<trkpt lat="-35.3631568" lon="149.1646556">
  <ele>663.11</ele>
  <time>2026-08-29T18:57:10Z</time>
  <course>336.67</course>
  <speed>22.45</speed>
  <fix>3d</fix>
</trkpt>
<trkpt lat="-35.3629304" lon="149.1645459">
  <ele>663.52</ele>
  <time>2026-08-29T18:57:10Z</time>
  <course>339.11</course>
  <speed>22.507634260401513</speed>
  <fix>3d</fix>
</trkpt>
<trkpt lat="-35.3629693" lon="149.1645631">
  <ele>663.28</ele>
  <time>2026-08-29T18:57:10Z</time>
  <course>339.64</course>
  <speed>22.53</speed>
  <fix>3d</fix>
</trkpt>
<trkpt lat="-35.3627371" lon="149.1644682">
  <ele>663.66</ele>
  <time>2026-08-29T18:57:10Z</time>
  <course>342.17</course>
  <speed>22.6258635194328</speed>
  <fix>3d</fix>
</trkpt>
<trkpt lat="-35.3627774" lon="149.1644829">
  <ele>663.44</ele>
  <time>2026-08-29T18:57:10Z</time>
  <course>342.73</course>
  <speed>22.6</speed>
  <fix>3d</fix>
</trkpt>
<trkpt lat="-35.3625418" lon="149.1644029">
  <ele>663.84</ele>
  <time>2026-08-29T18:57:10Z</time>
  <course>345.0</course>
  <speed>22.582544143652193</speed>
  <fix>3d</fix>
</trkpt>
<trkpt lat="-35.362582" lon="149.164415">
  <ele>663.64</ele>
  <time>2026-08-29T18:57:10Z</time>
  <course>345.5</course>
  <speed>22.6</speed>
  <fix>3d</fix>
</trkpt>
<trkpt lat="-35.3623431" lon="149.1643475">
  <ele>663.98</ele>
  <time>2026-08-29T18:57:10Z</time>
  <course>347.36</course>
  <speed>22.62834505658777</speed>
  <fix>3d</fix>
</trkpt>
<trkpt lat="-35.3623845" lon="149.1643579">
  <ele>663.8</ele>
  <time>2026-08-29T18:57:10Z</time>
  <course>347.84</course>
  <speed>22.59</speed>
  <fix>3d</fix>
</trkpt>
<trkpt lat="-35.362144" lon="149.1643004">
  <ele>664.09</ele>
  <time>2026-08-29T18:57:10Z</time>
  <course>349.22</course>
  <speed>22.58980300932259</speed>
  <fix>3d</fix>
</trkpt>
<trkpt lat="-35.3621853" lon="149.1643093">
  <ele>663.92</ele>
  <time>2026-08-29T18:57:10Z</time>
  <course>349.56</course>
  <speed>22.6</speed>
  <fix>3d</fix>
</trkpt>
<trkpt lat="-35.3619433" lon="149.1642588">
  <ele>664.16</ele>
  <time>2026-08-29T18:57:10Z</time>
  <course>350.47</course>
  <speed>22.623450223164458</speed>
  <fix>3d</fix>
</trkpt>
<trkpt lat="-35.3619853" lon="149.1642669">
  <ele>664.01</ele>
  <time>2026-08-29T18:57:10Z</time>
  <course>350.71</course>
  <speed>22.6</speed>
  <fix>3d</fix>
</trkpt>
<trkpt lat="-35.361743" lon="149.1642209">
  <ele>664.24</ele>
  <time>2026-08-29T18:57:10Z</time>
  <course>351.23</course>
  <speed>22.58682137884833</speed>
  <fix>3d</fix>
</trkpt>
<trkpt lat="-35.3617845" lon="149.1642284">
  <ele>664.08</ele>
  <time>2026-08-29T18:57:10Z</time>
  <course>351.45</course>
  <speed>22.62</speed>
  <fix>3d</fix>
</trkpt>
<trkpt lat="-35.3615419" lon="149.1641848">
  <ele>664.27</ele>
  <time>2026-08-29T18:57:10Z</time>
  <course>351.67</course>
  <speed>22.62464585358189</speed>
  <fix>3d</fix>
</trkpt>
<trkpt lat="-35.3615834" lon="149.1641922">
  <ele>664.12</ele>
  <time>2026-08-29T18:57:10Z</time>
  <course>351.72</course>
  <speed>22.64</speed>
  <fix>3d</fix>
</trkpt>
<trkpt lat="-35.3613404" lon="149.1641478">
  <ele>664.34</ele>
  <time>2026-08-29T18:57:10Z</time>
  <course>348.78</course>
  <speed>22.62700377867118</speed>
  <fix>3d</fix>
</trkpt>
<trkpt lat="-35.361382" lon="149.1641563">
  <ele>664.2</ele>
  <time>2026-08-29T18:57:10Z</time>
  <course>351.07</course>
  <speed>22.64</speed>
  <fix>3d</fix>
</trkpt>
<trkpt lat="-35.3611509" lon="149.1640453">
  <ele>664.42</ele>
  <time>2026-08-29T18:57:10Z</time>
  <course>323.12</course>
  <speed>24.110089174451428</speed>
  <fix>3d</fix>
</trkpt>
<trkpt lat="-35.3611872" lon="149.1640767">
  <ele>664.1</ele>
  <time>2026-08-29T18:57:10Z</time>
  <course>326.8</course>
  <speed>23.89</speed>
  <fix>3d</fix>
</trkpt>
<trkpt lat="-35.3610176" lon="149.1638381">
  <ele>666.21</ele>
  <time>2026-08-29T18:57:10Z</time>
  <course>306.04</course>
  <speed>23.72525447703354</speed>
  <fix>3d</fix>
</trkpt>
<trkpt lat="-35.3610416" lon="149.1638839">
  <ele>665.95</ele>
  <time>2026-08-29T18:57:10Z</time>
  <course>304.15</course>
  <speed>23.84</speed>
  <fix>3d</fix>
</trkpt>
<trkpt lat="-35.360934" lon="149.1636044">
  <ele>666.01</ele>
  <time>2026-08-29T18:57:11Z</time>
  <course>287.63</course>
  <speed>23.091931491323976</speed>
  <fix>3d</fix>
</trkpt>
<trkpt lat="-35.3609456" lon="149.1636551">
  <ele>665.99</ele>
  <time>2026-08-29T18:57:11Z</time>
  <course>288.19</course>
  <speed>23.13</speed>
  <fix>3d</fix>
</trkpt>
<trkpt lat="-35.3609161" lon="149.1633544">
  <ele>665.78</ele>
  <time>2026-08-29T18:57:11Z</time>
  <course>270.85</course>
  <speed>22.61676590496528</speed>
  <fix>3d</fix>
</trkpt>
<trkpt lat="-35.3609149" lon="149.1634063">
  <ele>665.77</ele>
  <time>2026-08-29T18:57:11Z</time>
  <course>270.18</course>
  <speed>22.68</speed>
  <fix>3d</fix>
</trkpt>
<trkpt lat="-35.3609584" lon="149.1631127">
  <ele>664.95</ele>
  <time>2026-08-29T18:57:11Z</time>
  <course>247.14</course>
  <speed>23.202476160961787</speed>
  <fix>3d</fix>
</trkpt>
<trkpt lat="-35.3609424" lon="149.1631611">
  <ele>665.02</ele>
  <time>2026-08-29T18:57:11Z</time>
  <course>250.68</course>
  <speed>22.89</speed>
  <fix>3d</fix>
</trkpt>
<trkpt lat="-35.3610987" lon="149.1629225">
  <ele>665.79</ele>
  <time>2026-08-29T18:57:11Z</time>
  <course>220.67</course>
  <speed>23.354678332188605</speed>
  <fix>3d</fix>
</trkpt>
<trkpt lat="-35.3610644" lon="149.162956">
  <ele>665.54</ele>
  <time>2026-08-29T18:57:11Z</time>
  <course>220.18</course>
  <speed>23.41</speed>
  <fix>3d</fix>
</trkpt>
<trkpt lat="-35.3612749" lon="149.1628033">
  <ele>665.65</ele>
  <time>2026-08-29T18:57:11Z</time>
  <course>203.88</course>
  <speed>22.731135035453025</speed>
  <fix>3d</fix>
</trkpt>
<trkpt lat="-35.3612394" lon="149.1628205">
  <ele>665.67</ele>
  <time>2026-08-29T18:57:11Z</time>
  <course>203.86</course>
  <speed>22.81</speed>
  <fix>3d</fix>
</trkpt>
<trkpt lat="-35.3614784" lon="149.1627596">
  <ele>665.15</ele>
  <time>2026-08-29T18:57:11Z</time>
  <course>184.23</course>
  <speed>22.430644217231034</speed>
  <fix>3d</fix>
</trkpt>
<trkpt lat="-35.3614361" lon="149.1627614">
  <ele>665.14</ele>
  <time>2026-08-29T18:57:11Z</time>
  <course>184.0</course>
  <speed>22.5</speed>
  <fix>3d</fix>
</trkpt>
<trkpt lat="-35.3616717" lon="149.1627844">
  <ele>664.56</ele>
  <time>2026-08-29T18:57:11Z</time>
  <course>170.97</course>
  <speed>22.048086084737605</speed>
  <fix>3d</fix>
</trkpt>
<trkpt lat="-35.3616358" lon="149.1627753">
  <ele>664.57</ele>
  <time>2026-08-29T18:57:11Z</time>
  <course>170.22</course>
  <speed>22.17</speed>
  <fix>3d</fix>
</trkpt>
<trkpt lat="-35.3618655" lon="149.1628576">
  <ele>663.91</ele>
  <time>2026-08-29T18:57:11Z</time>
  <course>160.95</course>
  <speed>21.98502444847401</speed>
  <fix>3d</fix>
</trkpt>
<trkpt lat="-35.3618271" lon="149.1628392">
  <ele>663.88</ele>
  <time>2026-08-29T18:57:11Z</time>
  <course>160.18</course>
  <speed>22.03</speed>
  <fix>3d</fix>
</trkpt>
<trkpt lat="-35.3620424" lon="149.1629519">
  <ele>663.52</ele>
  <time>2026-08-29T18:57:11Z</time>
  <course>155.78</course>
  <speed>21.977010715745667</speed>
  <fix>3d</fix>
</trkpt>
<trkpt lat="-35.3620097" lon="149.1629325">
  <ele>663.42</ele>
  <time>2026-08-29T18:57:11Z</time>
  <course>155.28</course>
  <speed>22.06</speed>
  <fix>3d</fix>
</trkpt>
<trkpt lat="-35.3622264" lon="149.1630602">
  <ele>663.31</ele>
  <time>2026-08-29T18:57:11Z</time>
  <course>154.26</course>
  <speed>22.215368554223897</speed>
  <fix>3d</fix>
</trkpt>
<trkpt lat="-35.3621893" lon="149.1630377">
  <ele>663.18</ele>
  <time>2026-08-29T18:57:11Z</time>
  <course>154.16</course>
  <speed>22.22</speed>
  <fix>3d</fix>
</trkpt>
<trkpt lat="-35.3624038" lon="149.1631613">
  <ele>663.4</ele>
  <time>2026-08-29T18:57:11Z</time>
  <course>155.29</course>
  <speed>22.31629449527856</speed>
  <fix>3d</fix>
</trkpt>
<trkpt lat="-35.3623704" lon="149.1631426">
  <ele>663.19</ele>
  <time>2026-08-29T18:57:11Z</time>
  <course>155.52</course>
  <speed>22.38</speed>
  <fix>3d</fix>
</trkpt>
<trkpt lat="-35.3625945" lon="149.1632589">
  <ele>663.51</ele>
  <time>2026-08-29T18:57:11Z</time>
  <course>157.64</course>
  <speed>22.50377746068424</speed>
  <fix>3d</fix>
</trkpt>
<trkpt lat="-35.3625557" lon="149.1632404">
  <ele>663.28</ele>
  <time>2026-08-29T18:57:11Z</time>
  <course>158.08</course>
  <speed>22.5</speed>
  <fix>3d</fix>
</trkpt>
<trkpt lat="-35.3627843" lon="149.1633428">
  <ele>663.69</ele>
  <time>2026-08-29T18:57:11Z</time>
  <course>160.55</course>
  <speed>22.52186937179061</speed>
  <fix>3d</fix>
</trkpt>
<trkpt lat="-35.3627453" lon="149.1633272">
  <ele>663.44</ele>
  <time>2026-08-29T18:57:11Z</time>
  <course>161.01</course>
  <speed>22.57</speed>
  <fix>3d</fix>
</trkpt>
<trkpt lat="-35.3629799" lon="149.1634159">
  <ele>663.85</ele>
  <time>2026-08-29T18:57:11Z</time>
  <course>163.32</course>
  <speed>22.618596331337628</speed>
  <fix>3d</fix>
</trkpt>
<trkpt lat="-35.3629388" lon="149.1634021">
  <ele>663.6</ele>
  <time>2026-08-29T18:57:11Z</time>
  <course>163.86</course>
  <speed>22.59</speed>
  <fix>3d</fix>
</trkpt>
<trkpt lat="-35.3631755" lon="149.1634776">
  <ele>664.0</ele>
  <time>2026-08-29T18:57:11Z</time>
  <course>165.81</course>
  <speed>22.577555226374713</speed>
  <fix>3d</fix>
</trkpt>
<trkpt lat="-35.363135" lon="149.1634661">
  <ele>663.76</ele>
  <time>2026-08-29T18:57:11Z</time>
  <course>166.27</course>
  <speed>22.6</speed>
  <fix>3d</fix>
</trkpt>
<trkpt lat="-35.3633743" lon="149.1635311">
  <ele>664.08</ele>
  <time>2026-08-29T18:57:11Z</time>
  <course>167.79</course>
  <speed>22.61811884308684</speed>
  <fix>3d</fix>
</trkpt>
<trkpt lat="-35.363333" lon="149.163521">
  <ele>663.85</ele>
  <time>2026-08-29T18:57:11Z</time>
  <course>168.16</course>
  <speed>22.6</speed>
  <fix>3d</fix>
</trkpt>
<trkpt lat="-35.363573" lon="149.1635778">
  <ele>664.16</ele>
  <time>2026-08-29T18:57:11Z</time>
  <course>169.27</course>
  <speed>22.577165455388773</speed>
  <fix>3d</fix>
</trkpt>
<trkpt lat="-35.3635322" lon="149.163569">
  <ele>663.93</ele>
  <time>2026-08-29T18:57:11Z</time>
  <course>169.53</course>
  <speed>22.6</speed>
  <fix>3d</fix>
</trkpt>
<trkpt lat="-35.3637741" lon="149.1636205">
  <ele>664.21</ele>
  <time>2026-08-29T18:57:11Z</time>
  <course>170.24</course>
  <speed>22.642696394201817</speed>
  <fix>3d</fix>
</trkpt>
<trkpt lat="-35.3637323" lon="149.1636121">
  <ele>663.99</ele>
  <time>2026-08-29T18:57:11Z</time>
  <course>170.45</course>
  <speed>22.63</speed>
  <fix>3d</fix>
</trkpt>
<trkpt lat="-35.3639743" lon="149.1636603">
  <ele>664.25</ele>
  <time>2026-08-29T18:57:11Z</time>
  <course>170.84</course>
  <speed>22.607295282717924</speed>
  <fix>3d</fix>
</trkpt>
<trkpt lat="-35.363933" lon="149.1636523">
  <ele>664.06</ele>
  <time>2026-08-29T18:57:11Z</time>
  <course>170.94</course>
  <speed>22.63</speed>
  <fix>3d</fix>
</trkpt>
<trkpt lat="-35.3641758" lon="149.163699">
  <ele>664.28</ele>
  <time>2026-08-29T18:57:11Z</time>
  <course>170.78</course>
  <speed>22.6671767099478</speed>
  <fix>3d</fix>
</trkpt>
<trkpt lat="-35.3641339" lon="149.163691">
  <ele>664.11</ele>
  <time>2026-08-29T18:57:11Z</time>
  <course>171.13</course>
  <speed>22.65</speed>
  <fix>3d</fix>
</trkpt>
<trkpt lat="-35.3643732" lon="149.1637617">
  <ele>664.11</ele>
  <time>2026-08-29T18:57:11Z</time>
  <course>157.26</course>
  <speed>23.488993167013355</speed>
  <fix>3d</fix>
</trkpt>
<trkpt lat="-35.3643334" lon="149.1637425">
  <ele>664.06</ele>
  <time>2026-08-29T18:57:11Z</time>
  <course>159.84</course>
  <speed>23.07</speed>
  <fix>3d</fix>
</trkpt>
<trkpt lat="-35.3645296" lon="149.1639403">
  <ele>665.68</ele>
  <time>2026-08-29T18:57:11Z</time>
  <course>130.08</course>
  <speed>24.005207768315607</speed>
  <fix>3d</fix>
</trkpt>
<trkpt lat="-35.3645025" lon="149.1638975">
  <ele>665.19</ele>
  <time>2026-08-29T18:57:11Z</time>
  <course>129.15</course>
  <speed>24.05</speed>
  <fix>3d</fix>
</trkpt>
<trkpt lat="-35.3646344" lon="149.1641667">
  <ele>666.07</ele>
  <time>2026-08-29T18:57:11Z</time>
  <course>115.57</course>
  <speed>23.269486457590766</speed>
  <fix>3d</fix>
</trkpt>
<trkpt lat="-35.3646172" lon="149.1641176">
  <ele>666.03</ele>
  <time>2026-08-29T18:57:11Z</time>
  <course>115.58</course>
  <speed>23.34</speed>
  <fix>3d</fix>
</trkpt>
<trkpt lat="-35.3646776" lon="149.1644133">
  <ele>665.84</ele>
  <time>2026-08-29T18:57:11Z</time>
  <course>97.04</course>
  <speed>22.834789247987377</speed>
  <fix>3d</fix>
</trkpt>
<trkpt lat="-35.3646742" lon="149.1643609">
  <ele>665.78</ele>
  <time>2026-08-29T18:57:11Z</time>
  <course>96.65</course>
  <speed>22.88</speed>
  <fix>3d</fix>
</trkpt>
<trkpt lat="-35.3646586" lon="149.1646617">
  <ele>665.21</ele>
  <time>2026-08-29T18:57:11Z</time>
  <course>75.37</course>
  <speed>23.187000668478017</speed>
  <fix>3d</fix>
</trkpt>
<trkpt lat="-35.3646691" lon="149.1646104">
  <ele>665.26</ele>
  <time>2026-08-29T18:57:11Z</time>
  <course>78.33</course>
  <speed>22.87</speed>
  <fix>3d</fix>
</trkpt>
<trkpt lat="-35.3645402" lon="149.1648711">
  <ele>665.89</ele>
  <time>2026-08-29T18:57:11Z</time>
  <course>46.71</course>
  <speed>23.4482600633821</speed>
  <fix>3d</fix>
</trkpt>
<trkpt lat="-35.3645709" lon="149.1648336">
  <ele>665.57</ele>
  <time>2026-08-29T18:57:11Z</time>
  <course>46.87</course>
  <speed>23.5</speed>
  <fix>3d</fix>
</trkpt>
<trkpt lat="-35.364369" lon="149.1650148">
  <ele>665.87</ele>
  <time>2026-08-29T18:57:11Z</time>
  <course>29.11</course>
  <speed>22.853632096452415</speed>
  <fix>3d</fix>
</trkpt>
<trkpt lat="-35.364407" lon="149.1649911">
  <ele>665.86</ele>
  <time>2026-08-29T18:57:11Z</time>
  <course>29.46</course>
  <speed>22.94</speed>
  <fix>3d</fix>
</trkpt>
<trkpt lat="-35.3641737" lon="149.1650789">
  <ele>665.39</ele>
  <time>2026-08-29T18:57:11Z</time>
  <course>8.86</course>
  <speed>22.49729983798056</speed>
  <fix>3d</fix>
</trkpt>
<trkpt lat="-35.3642151" lon="149.1650731">
  <ele>665.33</ele>
  <time>2026-08-29T18:57:11Z</time>
  <course>8.93</course>
  <speed>22.58</speed>
  <fix>3d</fix>
</trkpt>
<trkpt lat="-35.3639732" lon="149.1650693">
  <ele>664.69</ele>
  <time>2026-08-29T18:57:11Z</time>
  <course>354.0</course>
  <speed>22.15770746264153</speed>
  <fix>3d</fix>
</trkpt>
<trkpt lat="-35.3640144" lon="149.1650768">
  <ele>664.73</ele>
  <time>2026-08-29T18:57:11Z</time>
  <course>353.6</course>
  <speed>22.21</speed>
  <fix>3d</fix>
</trkpt>
<trkpt lat="-35.3637864" lon="149.1650084">
  <ele>664.07</ele>
  <time>2026-08-29T18:57:11Z</time>
  <course>343.04</course>
  <speed>21.966804501337926</speed>
  <fix>3d</fix>
</trkpt>
<trkpt lat="-35.363821" lon="149.1650235">
  <ele>664.03</ele>
  <time>2026-08-29T18:57:11Z</time>
  <course>342.03</course>
  <speed>22.05</speed>
  <fix>3d</fix>
</trkpt>
<trkpt lat="-35.3635997" lon="149.1649132">
  <ele>663.51</ele>
  <time>2026-08-29T18:57:11Z</time>
  <course>336.32</course>
  <speed>21.99247143910843</speed>
  <fix>3d</fix>
</trkpt>
<trkpt lat="-35.3636368" lon="149.1649348">
  <ele>663.43</ele>
  <time>2026-08-29T18:57:11Z</time>
  <course>335.77</course>
  <speed>22.03</speed>
  <fix>3d</fix>
</trkpt>
<trkpt lat="-35.3634253" lon="149.1648102">
  <ele>663.3</ele>
  <time>2026-08-29T18:57:11Z</time>
  <course>334.0</course>
  <speed>22.088499269982105</speed>
  <fix>3d</fix>
</trkpt>
<trkpt lat="-35.3634577" lon="149.1648301">
  <ele>663.14</ele>
  <time>2026-08-29T18:57:11Z</time>
  <course>333.9</course>
  <speed>22.16</speed>
  <fix>3d</fix>
</trkpt>
<trkpt lat="-35.3632398" lon="149.164702">
  <ele>663.24</ele>
  <time>2026-08-29T18:57:11Z</time>
  <course>334.69</course>
  <speed>22.352024516808314</speed>
  <fix>3d</fix>
</trkpt>
<trkpt lat="-35.3632775" lon="149.1647236">
  <ele>663.04</ele>
  <time>2026-08-29T18:57:11Z</time>
  <course>334.97</course>
  <speed>22.35</speed>
  <fix>3d</fix>
</trkpt>
<trkpt lat="-35.3630591" lon="149.1646066">
  <ele>663.42</ele>
  <time>2026-08-29T18:57:11Z</time>
  <course>336.82</course>
  <speed>22.439458549617456</speed>
  <fix>3d</fix>
</trkpt>
<trkpt lat="-35.3630934" lon="149.1646237">
  <ele>663.18</ele>
  <time>2026-08-29T18:57:11Z</time>
  <course>337.49</course>
  <speed>22.47</speed>
  <fix>3d</fix>
</trkpt>
<trkpt lat="-35.3628642" lon="149.1645177">
  <ele>663.55</ele>
  <time>2026-08-29T18:57:11Z</time>
  <course>340.0</course>
  <speed>22.610484293796098</speed>
  <fix>3d</fix>
</trkpt>
<trkpt lat="-35.3629045" lon="149.1645346">
  <ele>663.32</ele>
  <time>2026-08-29T18:57:11Z</time>
  <course>340.52</course>
  <speed>22.57</speed>
  <fix>3d</fix>
</trkpt>
<trkpt lat="-35.3626753" lon="149.164446">
  <ele>663.75</ele>
  <time>2026-08-29T18:57:11Z</time>
  <course>343.02</course>
  <speed>22.569955693354828</speed>
  <fix>3d</fix>
</trkpt>
<trkpt lat="-35.3627114" lon="149.1644584">
  <ele>663.57</ele>
  <time>2026-08-29T18:57:11Z</time>
  <course>343.68</course>
  <speed>22.58</speed>
  <fix>3d</fix>
</trkpt>
<trkpt lat="-35.3624739" lon="149.1643826">
  <ele>663.91</ele>
  <time>2026-08-29T18:57:11Z</time>
  <course>345.87</course>
  <speed>22.62986080381406</speed>
  <fix>3d</fix>
</trkpt>
<trkpt lat="-35.3625151" lon="149.1643943">
  <ele>663.73</ele>
  <time>2026-08-29T18:57:11Z</time>
  <course>346.41</course>
  <speed>22.61</speed>
  <fix>3d</fix>
</trkpt>
<trkpt lat="-35.3622765" lon="149.1643309">
  <ele>664.04</ele>
  <time>2026-08-29T18:57:11Z</time>
  <course>348.09</course>
  <speed>22.56925785222013</speed>
  <fix>3d</fix>
</trkpt>
<trkpt lat="-35.362317" lon="149.1643405">
  <ele>663.89</ele>
  <time>2026-08-29T18:57:11Z</time>
  <course>348.52</course>
  <speed>22.59</speed>
  <fix>3d</fix>
</trkpt>
<trkpt lat="-35.3620753" lon="149.1642858">
  <ele>664.14</ele>
  <time>2026-08-29T18:57:11Z</time>
  <course>349.82</course>
  <speed>22.637817916044824</speed>
  <fix>3d</fix>
</trkpt>
<trkpt lat="-35.3621173" lon="149.1642946">
  <ele>663.98</ele>
  <time>2026-08-29T18:57:11Z</time>
  <course>350.09</course>
  <speed>22.61</speed>
  <fix>3d</fix>
</trkpt>
<trkpt lat="-35.3618759" lon="149.1642464">
  <ele>664.21</ele>
  <time>2026-08-29T18:57:12Z</time>
  <course>350.81</course>
  <speed>22.563767415925913</speed>
  <fix>3d</fix>
</trkpt>
<trkpt lat="-35.361917" lon="149.1642541">
  <ele>664.07</ele>
  <time>2026-08-29T18:57:12Z</time>
  <course>351.07</course>
  <speed>22.59</speed>
  <fix>3d</fix>
</trkpt>
<trkpt lat="-35.3616741" lon="149.1642093">
  <ele>664.28</ele>
  <time>2026-08-29T18:57:12Z</time>
  <course>351.44</course>
  <speed>22.635980208508755</speed>
  <fix>3d</fix>
</trkpt>
<trkpt lat="-35.3617162" lon="149.1642168">
  <ele>664.13</ele>
  <time>2026-08-29T18:57:12Z</time>
  <course>351.66</course>
  <speed>22.61</speed>
  <fix>3d</fix>
</trkpt>
<trkpt lat="-35.3614739" lon="149.1641739">
  <ele>664.32</ele>
  <time>2026-08-29T18:57:12Z</time>
  <course>351.75</course>
  <speed>22.596305007677692</speed>
  <fix>3d</fix>
</trkpt>
<trkpt lat="-35.3615151" lon="149.1641811">
  <ele>664.18</ele>
  <time>2026-08-29T18:57:12Z</time>
  <course>351.85</course>
  <speed>22.63</speed>
  <fix>3d</fix>
</trkpt>
<trkpt lat="-35.3612729" lon="149.1641316">
  <ele>663.85</ele>
  <time>2026-08-29T18:57:12Z</time>
  <course>346.94</course>
  <speed>22.816715363960693</speed>
  <fix>3d</fix>
</trkpt>
<trkpt lat="-35.3613143" lon="149.1641432">
  <ele>663.97</ele>
  <time>2026-08-29T18:57:12Z</time>
  <course>348.06</course>
  <speed>22.66</speed>
  <fix>3d</fix>
</trkpt>
<trkpt lat="-35.3611029" lon="149.1639809">
  <ele>664.13</ele>
  <time>2026-08-29T18:57:12Z</time>
  <course>306.85</course>
  <speed>24.42671693044319</speed>
  <fix>3d</fix>
</trkpt>
<trkpt lat="-35.361131" lon="149.1640229">
  <ele>663.64</ele>
  <time>2026-08-29T18:57:12Z</time>
  <course>310.85</course>
  <speed>24.42</speed>
  <fix>3d</fix>
</trkpt>
<trkpt lat="-35.361018" lon="149.1637314">
  <ele>666.11</ele>
  <time>2026-08-29T18:57:12Z</time>
  <course>288.05</course>
  <speed>24.319303032776247</speed>
  <fix>3d</fix>
</trkpt>
<trkpt lat="-35.3610305" lon="149.1637851">
  <ele>665.89</ele>
  <time>2026-08-29T18:57:12Z</time>
  <course>288.07</course>
  <speed>24.34</speed>
  <fix>3d</fix>
</trkpt>
<trkpt lat="-35.3610101" lon="149.1634712">
  <ele>666.47</ele>
  <time>2026-08-29T18:57:12Z</time>
  <course>263.71</course>
  <speed>23.55387017031384</speed>
  <fix>3d</fix>
</trkpt>
<trkpt lat="-35.3610044" lon="149.1635249">
  <ele>666.42</ele>
  <time>2026-08-29T18:57:12Z</time>
  <course>264.91</course>
  <speed>23.58</speed>
  <fix>3d</fix>
</trkpt>
<trkpt lat="-35.3610887" lon="149.1632367">
  <ele>666.06</ele>
  <time>2026-08-29T18:57:12Z</time>
  <course>239.95</course>
  <speed>23.02584634709439</speed>
  <fix>3d</fix>
</trkpt>
<trkpt lat="-35.3610659" lon="149.1632818">
  <ele>666.15</ele>
  <time>2026-08-29T18:57:12Z</time>
  <course>240.76</course>
  <speed>23.03</speed>
  <fix>3d</fix>
</trkpt>
<trkpt lat="-35.3612332" lon="149.1630607">
  <ele>664.75</ele>
  <time>2026-08-29T18:57:12Z</time>
  <course>217.38</course>
  <speed>22.667884771191158</speed>
  <fix>3d</fix>
</trkpt>
<trkpt lat="-35.3611986" lon="149.1630916">
  <ele>664.98</ele>
  <time>2026-08-29T18:57:12Z</time>
  <course>218.12</course>
  <speed>22.7</speed>
  <fix>3d</fix>
</trkpt>
<trkpt lat="-35.3614159" lon="149.1629611">
  <ele>662.82</ele>
  <time>2026-08-29T18:57:12Z</time>
  <course>199.08</course>
  <speed>22.15624968265162</speed>
  <fix>3d</fix>
</trkpt>
<trkpt lat="-35.3613762" lon="149.1629759">
  <ele>663.16</ele>
  <time>2026-08-29T18:57:12Z</time>
  <course>198.83</course>
  <speed>22.26</speed>
  <fix>3d</fix>
</trkpt>
<trkpt lat="-35.3616112" lon="149.1629266">
  <ele>660.48</ele>
  <time>2026-08-29T18:57:12Z</time>
  <course>184.9</course>
  <speed>21.870265201867124</speed>
  <fix>3d</fix>
</trkpt>
<trkpt lat="-35.3615704" lon="149.1629287">
  <ele>660.84</ele>
  <time>2026-08-29T18:57:12Z</time>
  <course>184.29</course>
  <speed>21.95</speed>
  <fix>3d</fix>
</trkpt>
<trkpt lat="-35.3618069" lon="149.1629378">
  <ele>658.26</ele>
  <time>2026-08-29T18:57:12Z</time>
  <course>175.38</course>
  <speed>21.890207856482313</speed>
  <fix>3d</fix>
</trkpt>
<trkpt lat="-35.361767" lon="149.162932">
  <ele>658.56</ele>
  <time>2026-08-29T18:57:12Z</time>
  <course>174.84</course>
  <speed>21.95</speed>
  <fix>3d</fix>
</trkpt>
<trkpt lat="-35.3620031" lon="149.1629748">
  <ele>656.46</ele>
  <time>2026-08-29T18:57:12Z</time>
  <course>170.97</course>
  <speed>22.0920438167228</speed>
  <fix>3d</fix>
</trkpt>
<trkpt lat="-35.3619633" lon="149.1629658">
  <ele>656.66</ele>
  <time>2026-08-29T18:57:12Z</time>
  <course>170.41</course>
  <speed>22.15</speed>
  <fix>3d</fix>
</trkpt>
<trkpt lat="-35.3622011" lon="149.1630085">
  <ele>654.97</ele>
  <time>2026-08-29T18:57:12Z</time>
  <course>172.78</course>
  <speed>22.335650874778644</speed>
  <fix>3d</fix>
</trkpt>
<trkpt lat="-35.3621607" lon="149.1630026">
  <ele>655.13</ele>
  <time>2026-08-29T18:57:12Z</time>
  <course>173.11</course>
  <speed>22.35</speed>
  <fix>3d</fix>
</trkpt>
<trkpt lat="-35.3624042" lon="149.1630199">
  <ele>653.78</ele>
  <time>2026-08-29T18:57:12Z</time>
  <course>178.6</course>
  <speed>22.621858897977418</speed>
  <fix>3d</fix>
</trkpt>
<trkpt lat="-35.3623621" lon="149.1630197">
  <ele>653.89</ele>
  <time>2026-08-29T18:57:12Z</time>
  <course>179.24</course>
  <speed>22.59</speed>
  <fix>3d</fix>
</trkpt>
<trkpt lat="-35.3626028" lon="149.1630018">
  <ele>652.71</ele>
  <time>2026-08-29T18:57:12Z</time>
  <course>185.29</course>
  <speed>22.68328239034201</speed>
  <fix>3d</fix>
</trkpt>
<trkpt lat="-35.3625652" lon="149.1630076">
  <ele>652.79</ele>
  <time>2026-08-29T18:57:12Z</time>
  <course>186.29</course>
  <speed>22.68</speed>
  <fix>3d</fix>
</trkpt>
<trkpt lat="-35.3628075" lon="149.1629525">
  <ele>651.51</ele>
  <time>2026-08-29T18:57:12Z</time>
  <course>192.2</course>
  <speed>22.70454800254786</speed>
  <fix>3d</fix>
</trkpt>
<trkpt lat="-35.362766" lon="149.1629653">
  <ele>651.62</ele>
  <time>2026-08-29T18:57:12Z</time>
  <course>193.08</course>
  <speed>22.67</speed>
  <fix>3d</fix>
</trkpt>
<trkpt lat="-35.3629965" lon="149.1628805">
  <ele>650.22</ele>
  <time>2026-08-29T18:57:12Z</time>
  <course>196.45</course>
  <speed>22.53319329345044</speed>
  <fix>3d</fix>
</trkpt>
<trkpt lat="-35.3629612" lon="149.1628962">
  <ele>650.36</ele>
  <time>2026-08-29T18:57:12Z</time>
  <course>198.85</course>
  <speed>22.57</speed>
  <fix>3d</fix>
</trkpt>
<trkpt lat="-35.3631967" lon="149.1628161">
  <ele>647.84</ele>
  <time>2026-08-29T18:57:12Z</time>
  <course>190.42</course>
  <speed>22.856005775288036</speed>
  <fix>3d</fix>
</trkpt>
<trkpt lat="-35.3631547" lon="149.1628256">
  <ele>648.28</ele>
  <time>2026-08-29T18:57:12Z</time>
  <course>190.62</course>
  <speed>22.62</speed>
  <fix>3d</fix>
</trkpt>
<trkpt lat="-35.3633985" lon="149.1628182">
  <ele>645.68</ele>
  <time>2026-08-29T18:57:12Z</time>
  <course>176.49</course>
  <speed>23.07268731639208</speed>
  <fix>3d</fix>
</trkpt>
<trkpt lat="-35.3633604" lon="149.1628146">
  <ele>645.98</ele>
  <time>2026-08-29T18:57:12Z</time>
  <course>175.62</course>
  <speed>23.12</speed>
  <fix>3d</fix>
</trkpt>
<trkpt lat="-35.3636046" lon="149.1628778">
  <ele>643.82</ele>
  <time>2026-08-29T18:57:12Z</time>
  <course>163.84</course>
  <speed>22.858486389085346</speed>
  <fix>3d</fix>
</trkpt>
<trkpt lat="-35.3635637" lon="149.1628617">
  <ele>644.06</ele>
  <time>2026-08-29T18:57:12Z</time>
  <course>163.13</course>
  <speed>22.92</speed>
  <fix>3d</fix>
</trkpt>
<trkpt lat="-35.3637866" lon="149.1629727">
  <ele>642.48</ele>
  <time>2026-08-29T18:57:12Z</time>
  <course>155.6</course>
  <speed>22.351735950480446</speed>
  <fix>3d</fix>
</trkpt>
<trkpt lat="-35.3637532" lon="149.1629526">
  <ele>642.66</ele>
  <time>2026-08-29T18:57:12Z</time>
  <course>154.81</course>
  <speed>22.46</speed>
  <fix>3d</fix>
</trkpt>
<trkpt lat="-35.3639652" lon="149.1630954">
  <ele>641.35</ele>
  <time>2026-08-29T18:57:12Z</time>
  <course>149.83</course>
  <speed>22.19357114121114</speed>
  <fix>3d</fix>
</trkpt>
<trkpt lat="-35.3639299" lon="149.1630687">
  <ele>641.48</ele>
  <time>2026-08-29T18:57:12Z</time>
  <course>149.28</course>
  <speed>22.21</speed>
  <fix>3d</fix>
</trkpt>
<trkpt lat="-35.3641316" lon="149.1632272">
  <ele>640.49</ele>
  <time>2026-08-29T18:57:12Z</time>
  <course>146.73</course>
  <speed>22.146643086481525</speed>
  <fix>3d</fix>
</trkpt>
<trkpt lat="-35.3640982" lon="149.1631993">
  <ele>640.57</ele>
  <time>2026-08-29T18:57:12Z</time>
  <course>146.48</course>
  <speed>22.18</speed>
  <fix>3d</fix>
</trkpt>
<trkpt lat="-35.364298" lon="149.163366">
  <ele>639.93</ele>
  <time>2026-08-29T18:57:12Z</time>
  <course>145.63</course>
  <speed>22.281584324279994</speed>
  <fix>3d</fix>
</trkpt>
<trkpt lat="-35.3642636" lon="149.1633366">
  <ele>639.93</ele>
  <time>2026-08-29T18:57:12Z</time>
  <course>145.59</course>
  <speed>22.26</speed>
  <fix>3d</fix>
</trkpt>
<trkpt lat="-35.3644629" lon="149.1635035">
  <ele>639.57</ele>
  <time>2026-08-29T18:57:12Z</time>
  <course>145.86</course>
  <speed>22.321335085518516</speed>
  <fix>3d</fix>
</trkpt>
<trkpt lat="-35.364429" lon="149.1634752">
  <ele>639.52</ele>
  <time>2026-08-29T18:57:12Z</time>
  <course>145.89</course>
  <speed>22.35</speed>
  <fix>3d</fix>
</trkpt>
<trkpt lat="-35.364632" lon="149.1636399">
  <ele>639.31</ele>
  <time>2026-08-29T18:57:12Z</time>
  <course>146.92</course>
  <speed>22.474503331553294</speed>
  <fix>3d</fix>
</trkpt>
<trkpt lat="-35.3645966" lon="149.1636118">
  <ele>639.24</ele>
  <time>2026-08-29T18:57:12Z</time>
  <course>147.02</course>
  <speed>22.44</speed>
  <fix>3d</fix>
</trkpt>
<trkpt lat="-35.3648027" lon="149.1637705">
  <ele>639.18</ele>
  <time>2026-08-29T18:57:12Z</time>
  <course>148.19</course>
  <speed>22.490682515210604</speed>
  <fix>3d</fix>
</trkpt>
<trkpt lat="-35.3647674" lon="149.1637442">
  <ele>639.11</ele>
  <time>2026-08-29T18:57:12Z</time>
  <course>148.39</course>
  <speed>22.51</speed>
  <fix>3d</fix>
</trkpt>
<trkpt lat="-35.3649774" lon="149.1638977">
  <ele>639.14</ele>
  <time>2026-08-29T18:57:12Z</time>
  <course>149.53</course>
  <speed>22.567137612023377</speed>
  <fix>3d</fix>
</trkpt>
<trkpt lat="-35.3649408" lon="149.1638718">
  <ele>639.05</ele>
  <time>2026-08-29T18:57:12Z</time>
  <course>149.66</course>
  <speed>22.55</speed>
  <fix>3d</fix>
</trkpt>
<trkpt lat="-35.3651537" lon="149.1640198">
  <ele>639.15</ele>
  <time>2026-08-29T18:57:12Z</time>
  <course>149.95</course>
  <speed>22.56212977535587</speed>
  <fix>3d</fix>
</trkpt>
<trkpt lat="-35.365117" lon="149.1639951">
  <ele>639.05</ele>
  <time>2026-08-29T18:57:12Z</time>
  <course>150.89</course>
  <speed>22.58</speed>
  <fix>3d</fix>
</trkpt>
<trkpt lat="-35.3653195" lon="149.1641668">
  <ele>638.94</ele>
  <time>2026-08-29T18:57:12Z</time>
  <course>135.15</course>
  <speed>23.56023132314282</speed>
  <fix>3d</fix>
</trkpt>
<trkpt lat="-35.3652879" lon="149.1641302">
  <ele>638.89</ele>
  <time>2026-08-29T18:57:12Z</time>
  <course>137.95</course>
  <speed>23.13</speed>
  <fix>3d</fix>
</trkpt>
<trkpt lat="-35.3654176" lon="149.1643978">
  <ele>640.36</ele>
  <time>2026-08-29T18:57:12Z</time>
  <course>113.48</course>
  <speed>23.715516017999693</speed>
  <fix>3d</fix>
</trkpt>
<trkpt lat="-35.3654018" lon="149.1643478">
  <ele>640.03</ele>
  <time>2026-08-29T18:57:12Z</time>
  <course>111.43</course>
  <speed>23.79</speed>
  <fix>3d</fix>
</trkpt>
<trkpt lat="-35.3654662" lon="149.1646481">
  <ele>639.84</ele>
  <time>2026-08-29T18:57:12Z</time>
  <course>99.59</course>
  <speed>23.15751497894366</speed>
  <fix>3d</fix>
</trkpt>
<trkpt lat="-35.3654605" lon="149.1645957">
  <ele>639.96</ele>
  <time>2026-08-29T18:57:12Z</time>
  <course>99.42</course>
  <speed>23.17</speed>
  <fix>3d</fix>
</trkpt>
<trkpt lat="-35.3654564" lon="149.1649">
  <ele>638.64</ele>
  <time>2026-08-29T18:57:12Z</time>
  <course>83.36</course>
  <speed>22.813279027794316</speed>
  <fix>3d</fix>
</trkpt>
<trkpt lat="-35.365463" lon="149.1648487">
  <ele>638.83</ele>
  <time>2026-08-29T18:57:12Z</time>
  <course>82.52</course>
  <speed>22.88</speed>
  <fix>3d</fix>
</trkpt>
<trkpt lat="-35.3653998" lon="149.1651389">
  <ele>636.66</ele>
  <time>2026-08-29T18:57:12Z</time>
  <course>71.34</course>
  <speed>22.482228537224685</speed>
  <fix>3d</fix>
</trkpt>
<trkpt lat="-35.3654149" lon="149.1650909">
  <ele>637.04</ele>
  <time>2026-08-29T18:57:12Z</time>
  <course>70.47</course>
  <speed>22.5</speed>
  <fix>3d</fix>
</trkpt>
<trkpt lat="-35.3653091" lon="149.1653595">
  <ele>634.33</ele>
  <time>2026-08-29T18:57:12Z</time>
  <course>61.62</course>
  <speed>22.495681807849255</speed>
  <fix>3d</fix>
</trkpt>
<trkpt lat="-35.3653304" lon="149.1653151">
  <ele>634.74</ele>
  <time>2026-08-29T18:57:12Z</time>
  <course>60.64</course>
  <speed>22.45</speed>
  <fix>3d</fix>
</trkpt>
<trkpt lat="-35.3651989" lon="149.1655501">
  <ele>629.92</ele>
  <time>2026-08-29T18:57:12Z</time>
  <course>47.95</course>
  <speed>20.747327538745804</speed>
  <fix>3d</fix>
</trkpt>
<trkpt lat="-35.3652246" lon="149.1655155">
  <ele>630.86</ele>
  <time>2026-08-29T18:57:12Z</time>
  <course>49.95</course>
  <speed>20.58</speed>
  <fix>3d</fix>
</trkpt>
<trkpt lat="-35.3650338" lon="149.1656741">
  <ele>625.78</ele>
  <time>2026-08-29T18:57:12Z</time>
  <course>25.72</course>
  <speed>22.470999087713036</speed>
  <fix>3d</fix>
</trkpt>
<trkpt lat="-35.3650711" lon="149.1656539">
  <ele>626.55</ele>
  <time>2026-08-29T18:57:12Z</time>
  <course>25.3</course>
  <speed>22.13</speed>
  <fix>3d</fix>
</trkpt>
<trkpt lat="-35.3648263" lon="149.1657143">
  <ele>623.67</ele>
  <time>2026-08-29T18:57:12Z</time>
  <course>359.23</course>
  <speed>23.74693664454428</speed>
  <fix>3d</fix>
</trkpt>
<trkpt lat="-35.3648701" lon="149.1657161">
  <ele>623.65</ele>
  <time>2026-08-29T18:57:12Z</time>
  <course>0.63</course>
  <speed>24.03</speed>
  <fix>3d</fix>
</trkpt>
<trkpt lat="-35.3646309" lon="149.1656856">
  <ele>622.56</ele>
  <time>2026-08-29T18:57:13Z</time>
  <course>356.23</course>
  <speed>19.904496979326055</speed>
  <fix>3d</fix>
</trkpt>
<trkpt lat="-35.3646687" lon="149.1656926">
  <ele>623.26</ele>
  <time>2026-08-29T18:57:13Z</time>
  <course>353.77</course>
  <speed>20.54</speed>
  <fix>3d</fix>
</trkpt>
<trkpt lat="-35.3644616" lon="149.1656521">
  <ele>617.18</ele>
  <time>2026-08-29T18:57:13Z</time>
  <course>348.59</course>
  <speed>20.115996122489186</speed>
  <fix>3d</fix>
</trkpt>
<trkpt lat="-35.3644937" lon="149.1656623">
  <ele>618.02</ele>
  <time>2026-08-29T18:57:13Z</time>
  <course>347.93</course>
  <speed>19.89</speed>
  <fix>3d</fix>
</trkpt>
<trkpt lat="-35.3642793" lon="149.1655889">
  <ele>611.66</ele>
  <time>2026-08-29T18:57:13Z</time>
  <course>343.81</course>
  <speed>20.498060883898262</speed>
  <fix>3d</fix>
</trkpt>
<trkpt lat="-35.3643158" lon="149.1656036">
  <ele>612.73</ele>
  <time>2026-08-29T18:57:13Z</time>
  <course>343.15</course>
  <speed>20.61</speed>
  <fix>3d</fix>
</trkpt>
<trkpt lat="-35.3641073" lon="149.1655211">
  <ele>605.64</ele>
  <time>2026-08-29T18:57:13Z</time>
  <course>341.86</course>
  <speed>20.924791516285172</speed>
  <fix>3d</fix>
</trkpt>
<trkpt lat="-35.3641396" lon="149.1655348">
  <ele>606.61</ele>
  <time>2026-08-29T18:57:13Z</time>
  <course>341.67</course>
  <speed>20.84</speed>
  <fix>3d</fix>
</trkpt>
<trkpt lat="-35.3639232" lon="149.1654474">
  <ele>600.63</ele>
  <time>2026-08-29T18:57:13Z</time>
  <course>341.93</course>
  <speed>20.655113168414253</speed>
  <fix>3d</fix>
</trkpt>
<trkpt lat="-35.3639601" lon="149.165462">
  <ele>601.55</ele>
  <time>2026-08-29T18:57:13Z</time>
  <course>342.08</course>
  <speed>20.83</speed>
  <fix>3d</fix>
</trkpt>
<trkpt lat="-35.3637561" lon="149.1653857">
  <ele>595.9</ele>
  <time>2026-08-29T18:57:13Z</time>
  <course>343.52</course>
  <speed>18.790976557912046</speed>
  <fix>3d</fix>
</trkpt>
<trkpt lat="-35.3637867" lon="149.1653964">
  <ele>596.72</ele>
  <time>2026-08-29T18:57:13Z</time>
  <course>343.73</course>
  <speed>19.25</speed>
  <fix>3d</fix>
</trkpt>
<trkpt lat="-35.3635974" lon="149.1653343">
  <ele>591.9</ele>
  <time>2026-08-29T18:57:13Z</time>
  <course>345.95</course>
  <speed>16.94211616062173</speed>
  <fix>3d</fix>
</trkpt>
<trkpt lat="-35.3636288" lon="149.1653435">
  <ele>592.49</ele>
  <time>2026-08-29T18:57:13Z</time>
  <course>345.91</course>
  <speed>17.31</speed>
  <fix>3d</fix>
</trkpt>
<trkpt lat="-35.3634608" lon="149.1652972">
  <ele>589.47</ele>
  <time>2026-08-29T18:57:13Z</time>
  <course>348.16</course>
  <speed>15.10683620087277</speed>
  <fix>3d</fix>
</trkpt>
<trkpt lat="-35.3634856" lon="149.1653031">
  <ele>589.87</ele>
  <time>2026-08-29T18:57:13Z</time>
  <course>348.11</course>
  <speed>15.45</speed>
  <fix>3d</fix>
</trkpt>
<trkpt lat="-35.3633308" lon="149.1652677">
  <ele>587.79</ele>
  <time>2026-08-29T18:57:13Z</time>
  <course>350.24</course>
  <speed>13.55305500616005</speed>
  <fix>3d</fix>
</trkpt>
<trkpt lat="-35.3633559" lon="149.1652726">
  <ele>587.99</ele>
  <time>2026-08-29T18:57:13Z</time>
  <course>350.13</course>
  <speed>13.91</speed>
  <fix>3d</fix>
</trkpt>
<trkpt lat="-35.3632178" lon="149.1652462">
  <ele>586.99</ele>
  <time>2026-08-29T18:57:13Z</time>
  <course>351.88</course>
  <speed>11.9359959785516</speed>
  <fix>3d</fix>
</trkpt>
<trkpt lat="-35.3632395" lon="149.1652498">
  <ele>587.01</ele>
  <time>2026-08-29T18:57:13Z</time>
  <course>351.7</course>
  <speed>12.32</speed>
  <fix>3d</fix>
</trkpt>
<trkpt lat="-35.3631172" lon="149.1652298">
  <ele>586.61</ele>
  <time>2026-08-29T18:57:13Z</time>
  <course>353.02</course>
  <speed>10.478473171221083</speed>
  <fix>3d</fix>
</trkpt>
<trkpt lat="-35.3631368" lon="149.1652327">
  <ele>586.58</ele>
  <time>2026-08-29T18:57:13Z</time>
  <course>352.82</course>
  <speed>10.78</speed>
  <fix>3d</fix>
</trkpt>
<trkpt lat="-35.3630299" lon="149.1652174">
  <ele>586.4</ele>
  <time>2026-08-29T18:57:13Z</time>
  <course>353.87</course>
  <speed>9.134900108922922</speed>
  <fix>3d</fix>
</trkpt>
<trkpt lat="-35.3630467" lon="149.1652197">
  <ele>586.31</ele>
  <time>2026-08-29T18:57:13Z</time>
  <course>353.63</course>
  <speed>9.43</speed>
  <fix>3d</fix>
</trkpt>
<trkpt lat="-35.3629531" lon="149.1652075">
  <ele>586.26</ele>
  <time>2026-08-29T18:57:13Z</time>
  <course>354.44</course>
  <speed>7.9513646627481505</speed>
  <fix>3d</fix>
</trkpt>
<trkpt lat="-35.3629681" lon="149.1652094">
  <ele>586.15</ele>
  <time>2026-08-29T18:57:13Z</time>
  <course>354.17</course>
  <speed>8.19</speed>
  <fix>3d</fix>
</trkpt>
<trkpt lat="-35.3628864" lon="149.1651994">
  <ele>585.91</ele>
  <time>2026-08-29T18:57:13Z</time>
  <course>354.75</course>
  <speed>7.13344937600317</speed>
  <fix>3d</fix>
</trkpt>
<trkpt lat="-35.3628994" lon="149.1652011">
  <ele>585.88</ele>
  <time>2026-08-29T18:57:13Z</time>
  <course>354.46</course>
  <speed>7.26</speed>
  <fix>3d</fix>
</trkpt>
<trkpt lat="-35.3628216" lon="149.1651919">
  <ele>584.67</ele>
  <time>2026-08-29T18:57:13Z</time>
  <course>354.88</course>
  <speed>7.463846193484965</speed>
  <fix>3d</fix>
</trkpt>
<trkpt lat="-35.3628351" lon="149.1651935">
  <ele>584.85</ele>
  <time>2026-08-29T18:57:13Z</time>
  <course>354.57</course>
  <speed>7.32</speed>
  <fix>3d</fix>
</trkpt>
<trkpt lat="-35.362757" lon="149.1651844">
  <ele>583.84</ele>
  <time>2026-08-29T18:57:13Z</time>
  <course>354.9</course>
  <speed>6.136529964075788</speed>
  <fix>3d</fix>
</trkpt>
<trkpt lat="-35.3627688" lon="149.1651858">
  <ele>583.71</ele>
  <time>2026-08-29T18:57:13Z</time>
  <course>354.7</course>
  <speed>6.64</speed>
  <fix>3d</fix>
</trkpt>
<trkpt lat="-35.3627114" lon="149.1651793">
  <ele>583.72</ele>
  <time>2026-08-29T18:57:13Z</time>
  <course>354.92</course>
  <speed>4.1990951406225605</speed>
  <fix>3d</fix>
</trkpt>
<trkpt lat="-35.3627194" lon="149.1651803">
  <ele>583.56</ele>
  <time>2026-08-29T18:57:13Z</time>
  <course>354.69</course>
  <speed>4.55</speed>
  <fix>3d</fix>
</trkpt>
<trkpt lat="-35.3626797" lon="149.1651757">
  <ele>583.62</ele>
  <time>2026-08-29T18:57:13Z</time>
  <course>354.94</course>
  <speed>2.9333939387678565</speed>
  <fix>3d</fix>
</trkpt>
<trkpt lat="-35.3626852" lon="149.1651764">
  <ele>583.45</ele>
  <time>2026-08-29T18:57:13Z</time>
  <course>354.69</course>
  <speed>3.19</speed>
  <fix>3d</fix>
</trkpt>
<trkpt lat="-35.3626572" lon="149.1651731">
  <ele>583.56</ele>
  <time>2026-08-29T18:57:13Z</time>
  <course>354.95</course>
  <speed>2.078701517774979</speed>
  <fix>3d</fix>
</trkpt>
<trkpt lat="-35.3626609" lon="149.1651736">
  <ele>583.38</ele>
  <time>2026-08-29T18:57:13Z</time>
  <course>354.69</course>
  <speed>2.28</speed>
  <fix>3d</fix>
</trkpt>
<trkpt lat="-35.362641" lon="149.1651713">
  <ele>583.49</ele>
  <time>2026-08-29T18:57:13Z</time>
  <course>354.96</course>
  <speed>1.4956603892595404</speed>
  <fix>3d</fix>
</trkpt>
<trkpt lat="-35.3626435" lon="149.1651716">
  <ele>583.32</ele>
  <time>2026-08-29T18:57:13Z</time>
  <course>354.69</course>
  <speed>1.64</speed>
  <fix>3d</fix>
</trkpt>
<trkpt lat="-35.3626291" lon="149.16517">
  <ele>583.44</ele>
  <time>2026-08-29T18:57:13Z</time>
  <course>354.97</course>
  <speed>1.0937092849564731</speed>
  <fix>3d</fix>
</trkpt>
<trkpt lat="-35.362631" lon="149.1651701">
  <ele>583.28</ele>
  <time>2026-08-29T18:57:13Z</time>
  <course>354.68</course>
  <speed>1.19</speed>
  <fix>3d</fix>
</trkpt>
<trkpt lat="-35.3626205" lon="149.165169">
  <ele>583.41</ele>
  <time>2026-08-29T18:57:13Z</time>
  <course>354.98</course>
  <speed>0.8022468448052632</speed>
  <fix>3d</fix>
</trkpt>
<trkpt lat="-35.3626218" lon="149.1651691">
  <ele>583.26</ele>
  <time>2026-08-29T18:57:13Z</time>
  <course>354.68</course>
  <speed>0.87</speed>
  <fix>3d</fix>
</trkpt>
<trkpt lat="-35.3626141" lon="149.1651683">
  <ele>583.38</ele>
  <time>2026-08-29T18:57:13Z</time>
  <course>354.99</course>
  <speed>0.5913543776789008</speed>
  <fix>3d</fix>
</trkpt>
<trkpt lat="-35.3626151" lon="149.1651684">
  <ele>583.24</ele>
  <time>2026-08-29T18:57:13Z</time>
  <course>354.68</course>
  <speed>0.63</speed>
  <fix>3d</fix>
</trkpt>
<trkpt lat="-35.3626094" lon="149.1651678">
  <ele>583.33</ele>
  <time>2026-08-29T18:57:13Z</time>
  <course>355.0</course>
  <speed>0.4310452412450461</speed>
  <fix>3d</fix>
</trkpt>
<trkpt lat="-35.3626102" lon="149.1651678">
  <ele>583.22</ele>
  <time>2026-08-29T18:57:13Z</time>
  <course>354.69</course>
  <speed>0.46</speed>
  <fix>3d</fix>
</trkpt>
<trkpt lat="-35.362606" lon="149.1651674">
  <ele>583.33</ele>
  <time>2026-08-29T18:57:13Z</time>
  <course>355.0</course>
  <speed>0.32062439083762795</speed>
  <fix>3d</fix>
</trkpt>
<trkpt lat="-35.3626065" lon="149.1651674">
  <ele>583.21</ele>
  <time>2026-08-29T18:57:13Z</time>
  <course>354.69</course>
  <speed>0.34</speed>
  <fix>3d</fix>
</trkpt>
<trkpt lat="-35.3626035" lon="149.1651671">
  <ele>583.31</ele>
  <time>2026-08-29T18:57:13Z</time>
  <course>355.01</course>
  <speed>0.23021728866442676</speed>
  <fix>3d</fix>
</trkpt>
<trkpt lat="-35.3626039" lon="149.1651671">
  <ele>583.2</ele>
  <time>2026-08-29T18:57:13Z</time>
  <course>354.69</course>
  <speed>0.25</speed>
  <fix>3d</fix>
</trkpt>
</trkseg>
</trk>
</gpx>
